[{"header": {"dx": 0.06612293990616946, "dy": 0.0552356325346848, "nx": 98, "ny": 59, "la1": 35.046912555036876, "la2": 31.78801023549047, "lo1": -121.43107172385933, "lo2": -114.95102361305473, "refTime": "2026041200", "parameterCategory": 1, "parameterNumber": 2}, "data": [5.57, 5.7, 5.33, 4.92, 4.88, 4.44, 4.3, 4.3, 4.43, 4.44, 4.44, 4.44, 6.2, 6.65, 7.1, 7.1, 7.1, 6.88, 7.45, 7.01, 6.64, 6.23, 6.16, 7.2, 8.3, 8.95, 8.95, 8.95, 8.95, 8.95, 7.89, 6.65, 5.81, 6.94, 7.21, 6.8, 6.21, 5.6, 4.6, 4.57, 4.41, 4.47, 4.47, 5.2, 6.13, 6.73, 6.83, 6.31, 6.57, 6.45, 6.7, 7.51, 8.85, 9.56, 11.28, 11.28, 11.64, 11.6, 11.2, 10.96, 9.6, 8.05, 6.79, 6.39, 6.64, 7.59, 7.48, 8.22, 9.26, 9.96, 10.66, 10.87, 10.96, 10.85, 10.68, 10.45, 9.54, 7.06, 5.82, 5.2, 4.57, 3.9, 3.9, 3.9, 4.0, 3.07, 1.73, 0.89, 0.82, 0.82, 1.63, 2.31, 3.25, 3.25, 3.95, 4.13, 4.13, 3.95, 5.57, 5.26, 5.33, 4.92, 4.44, 3.98, 3.98, 3.98, 4.44, 4.47, 3.98, 5.29, 6.02, 6.65, 7.94, 7.94, 6.65, 7.5, 7.01, 6.02, 6.23, 5.81, 6.13, 7.6, 6.82, 7.44, 7.44, 7.81, 8.05, 7.44, 6.82, 5.82, 5.2, 6.2, 6.2, 5.21, 4.43, 3.35, 3.48, 2.84, 2.98, 3.58, 4.24, 4.81, 6.01, 6.53, 6.42, 6.31, 6.57, 6.45, 7.24, 8.12, 9.62, 10.19, 11.16, 11.88, 11.64, 11.6, 11.2, 10.96, 9.6, 7.82, 6.79, 6.32, 6.83, 7.18, 7.78, 7.82, 9.26, 10.28, 11.28, 11.26, 11.09, 10.68, 10.45, 9.49, 7.63, 7.06, 5.82, 5.2, 4.57, 3.9, 3.9, 3.9, 4.0, 3.07, 1.73, 0.89, 0.82, 0.82, 1.63, 2.31, 3.25, 3.25, 3.95, 4.13, 4.13, 3.95, 5.57, 5.24, 4.89, 4.47, 3.98, 3.98, 3.98, 4.02, 4.47, 4.02, 3.98, 4.3, 6.02, 6.94, 6.98, 7.55, 7.1, 6.65, 6.64, 6.58, 5.59, 6.23, 6.52, 6.01, 7.56, 6.39, 6.79, 6.44, 6.44, 6.11, 5.24, 4.26, 4.26, 5.03, 4.6, 3.58, 0.87, 0.88, 0.88, 0.99, 2.24, 3.58, 4.58, 5.1, 5.76, 6.04, 5.9, 6.31, 6.57, 7.36, 8.12, 8.93, 9.66, 10.66, 10.73, 11.64, 11.64, 11.6, 11.2, 10.55, 9.6, 7.44, 5.89, 6.04, 6.7, 6.57, 7.36, 8.12, 8.85, 10.63, 11.28, 11.83, 11.5, 10.68, 9.49, 7.63, 6.16, 6.16, 4.66, 3.9, 3.58, 3.58, 3.9, 4.0, 3.35, 1.63, 0.76, -0.0, 0.85, 1.56, 1.69, 2.39, 3.25, 3.25, 3.25, 3.95, 4.25, 4.25, 5.51, 5.24, 4.44, 4.02, 4.02, 4.02, 4.02, 4.02, 4.02, 4.02, 3.39, 3.7, 5.94, 6.51, 7.37, 7.55, 7.15, 6.71, 6.21, 6.02, 5.75, 5.75, 5.06, 5.37, 6.01, 6.95, 5.24, 5.37, 4.58, 4.16, 3.27, 2.57, 2.57, 3.7, 2.82, 1.7, -0.0, 0.0, 0.0, 2.24, 2.76, 3.27, 4.2, 4.83, 5.76, 5.76, 6.04, 6.42, 6.98, 8.22, 8.59, 9.67, 9.67, 9.67, 10.28, 10.66, 11.26, 11.6, 11.09, 10.15, 8.63, 6.64, 5.64, 5.76, 6.57, 6.84, 7.36, 7.09, 8.49, 10.18, 11.25, 11.53, 11.26, 10.0, 8.14, 6.57, 5.29, 4.47, 4.47, 3.58, 3.13, 3.39, 2.95, 1.84, 0.89, 0.85, -0.0, -0.0, 0.82, 1.69, 2.39, 2.39, 2.49, 3.25, 3.25, 4.25, 4.07, 4.07, 5.09, 4.8, 4.44, 4.02, 4.02, 4.02, 4.02, 4.02, 3.58, 3.53, 3.39, 3.6, 5.94, 6.88, 7.55, 7.55, 6.66, 6.2, 5.09, 4.84, 4.74, 3.68, 3.68, 3.91, 3.55, 5.31, 4.37, 4.37, 4.14, 2.51, 2.54, 1.75, 1.65, 2.51, 2.82, 3.91, 4.29, 5.21, 3.16, 2.6, 2.57, 3.36, 4.92, 5.9, 6.04, 5.76, 6.04, 6.83, 7.59, 8.31, 9.04, 9.04, 9.05, 9.04, 10.04, 10.66, 10.87, 11.2, 11.09, 9.9, 7.44, 5.76, 5.76, 6.45, 6.45, 6.45, 6.45, 6.7, 8.3, 9.4, 10.43, 11.87, 11.44, 11.26, 8.4, 5.34, 4.47, 3.9, 3.9, 2.97, 3.13, 2.95, 0.95, -0.0, -0.0, -0.0, -0.0, 0.85, 0.82, 2.39, 2.49, 1.56, 1.56, 2.49, 3.25, 4.07, 4.07, 3.88, 5.09, 4.77, 4.44, 4.02, 4.02, 4.02, 4.02, 3.58, 3.53, 3.39, 3.6, 3.72, 5.94, 7.08, 7.54, 7.1, 6.02, 4.98, 3.35, 3.33, 2.82, 3.55, 2.4, 2.82, 2.66, 2.66, 2.82, 2.54, 4.0, 4.0, 2.51, 1.84, 1.72, 1.98, 3.11, 4.16, 4.95, 6.55, 5.06, 2.67, 1.67, 3.61, 4.8, 6.2, 6.57, 6.98, 7.18, 7.27, 8.38, 8.38, 9.05, 8.79, 8.38, 8.38, 9.4, 10.28, 11.2, 11.5, 10.95, 8.8, 6.01, 4.92, 5.86, 6.33, 6.33, 6.56, 6.33, 6.45, 7.51, 8.66, 10.43, 12.22, 12.89, 12.86, 10.0, 6.02, 3.9, 4.0, 4.47, 4.02, 2.95, 0.89, -0.0, -0.0, -0.0, -0.0, -0.0, 0.8, 1.68, 1.62, 1.63, 1.58, 1.56, 2.39, 3.36, 4.07, 4.07, 3.36, 5.09, 4.77, 4.44, 4.43, 4.02, 4.02, 4.02, 3.53, 3.39, 3.2, 3.6, 3.72, 6.16, 6.51, 7.5, 5.94, 4.54, 3.91, 2.64, 2.35, 2.35, 2.64, 1.72, 1.84, 1.4, 1.32, 1.32, 2.66, 4.14, 3.77, 4.14, 1.72, 1.03, 0.96, 2.29, 3.33, 4.58, 6.98, 6.63, 2.82, 1.4, 2.46, 3.77, 6.16, 7.51, 8.12, 8.53, 8.64, 8.38, 8.49, 8.49, 7.68, 8.38, 8.38, 9.04, 10.23, 11.5, 11.66, 9.97, 6.82, 4.34, 5.0, 5.6, 6.21, 5.6, 6.43, 6.43, 6.33, 7.24, 8.76, 10.58, 12.27, 13.59, 14.17, 12.3, 8.33, 4.82, 4.57, 3.93, 1.75, 1.65, -0.0, -0.0, -0.0, -0.0, -0.0, 0.88, 1.73, 1.75, 1.69, 0.73, 1.45, 1.62, 2.47, 3.21, 3.88, 3.88, 3.21, 5.51, 4.6, 4.34, 4.44, 4.02, 4.02, 3.97, 3.39, 3.39, 3.39, 3.07, 3.14, 4.98, 4.89, 5.72, 4.11, 3.11, 1.84, 1.63, 1.73, 2.64, 2.6, 0.82, -0.0, 0.82, 1.41, 1.41, 2.8, 4.29, 4.29, 2.8, 1.32, 1.23, 1.52, 2.4, 3.35, 4.54, 5.58, 6.63, 5.31, 2.54, 2.54, 3.8, 6.3, 7.59, 8.53, 8.93, 9.26, 8.53, 9.08, 7.35, 7.68, 7.27, 8.38, 9.05, 10.43, 11.8, 11.14, 8.0, 4.58, 3.36, 4.06, 5.8, 5.8, 5.8, 6.65, 7.25, 7.51, 8.12, 9.62, 11.64, 13.11, 14.64, 14.84, 13.76, 10.26, 7.55, 5.36, 2.64, 0.85, 0.74, -0.0, -0.0, -0.0, -0.0, 0.87, 1.66, 1.72, 0.8, 0.82, 0.7, 0.75, 1.62, 2.39, 3.21, 4.2, 3.21, 3.21, 5.31, 5.09, 4.77, 4.44, 4.02, 3.98, 3.53, 3.53, 3.53, 2.91, 2.91, 2.5, 3.79, 4.11, 4.19, 3.72, 1.84, 1.63, 1.84, 1.84, 1.4, 1.4, 1.03, -0.0, 0.88, 1.3, 1.7, 1.84, 3.47, 3.22, 1.3, 1.41, 1.41, 2.6, 3.35, 3.93, 4.24, 3.79, 5.06, 5.31, 4.96, 4.96, 5.31, 6.32, 7.21, 7.06, 8.15, 8.24, 8.76, 8.85, 7.95, 7.27, 7.27, 8.38, 9.42, 10.18, 9.7, 7.55, 4.6, 2.67, 3.29, 3.96, 5.6, 5.67, 5.67, 6.31, 8.05, 8.76, 9.26, 10.04, 12.04, 13.15, 15.01, 14.69, 13.41, 10.7, 7.42, 4.54, 0.85, 0.75, 1.68, 2.23, 0.79, -0.0, 0.79, 2.41, 3.07, 1.72, -0.0, -0.0, -0.0, -0.0, 0.72, 2.39, 3.36, 3.88, 3.36, 2.59, 5.31, 5.09, 4.77, 4.44, 4.02, 4.02, 3.53, 3.53, 3.58, 3.07, 3.07, 2.4, 2.4, 2.5, 4.11, 3.91, 1.98, 1.03, 1.63, 1.52, 1.52, 1.63, 1.32, 1.32, 1.52, 1.41, 1.3, 1.41, 1.84, 2.98, 1.55, 1.55, 1.3, 2.6, 3.76, 4.65, 3.16, 2.0, 4.02, 6.32, 6.01, 6.01, 6.39, 6.44, 6.82, 6.79, 6.73, 7.27, 8.53, 8.85, 8.12, 7.64, 7.36, 7.48, 7.27, 6.95, 5.1, 3.55, 2.67, 2.39, 3.23, 4.0, 5.67, 5.55, 5.73, 7.36, 8.56, 9.48, 9.21, 10.04, 11.09, 12.22, 14.03, 13.84, 11.6, 7.98, 5.73, 1.73, 0.73, 1.45, 2.89, 4.5, 3.09, 1.47, 1.66, 3.48, 3.72, 2.2, -0.0, -0.71, -0.72, -0.0, 0.85, 2.35, 3.88, 4.07, 3.11, 2.39, 5.81, 5.31, 5.09, 4.44, 4.02, 4.02, 3.58, 3.58, 3.58, 3.13, 3.07, 2.6, 2.4, 2.4, 4.4, 3.48, 3.22, 1.6, 1.88, 2.5, 3.58, 3.48, 3.48, 3.22, 2.8, 1.41, 1.7, 1.41, 1.7, 3.79, 3.79, 2.0, 2.2, 3.79, 4.11, 4.74, 3.68, 3.68, 5.06, 6.79, 7.15, 6.79, 6.79, 7.07, 6.7, 5.77, 5.69, 5.89, 6.53, 6.7, 6.56, 7.25, 7.13, 5.86, 3.87, 2.49, 2.35, 4.1, 4.01, 3.32, 3.17, 4.76, 5.45, 5.62, 6.47, 7.11, 8.99, 9.6, 9.17, 9.0, 9.66, 11.04, 11.52, 9.81, 6.98, 4.11, 2.68, -0.0, -0.0, 2.41, 4.31, 5.28, 5.86, 3.9, 3.48, 3.84, 4.01, 3.2, 0.76, -0.73, -0.71, -0.0, 0.85, 2.44, 3.32, 3.36, 2.39, 3.36, 5.6, 5.31, 5.09, 4.77, 4.02, 4.02, 4.02, 3.58, 3.58, 3.13, 3.13, 2.63, 2.63, 2.6, 2.8, 2.68, 2.79, 2.79, 2.68, 2.91, 3.53, 3.53, 3.53, 6.07, 4.43, 3.22, 2.98, 1.16, 2.48, 3.48, 4.84, 4.11, 4.11, 3.79, 3.35, 4.43, 5.06, 5.37, 5.77, 6.79, 6.79, 6.82, 6.82, 6.7, 5.93, 4.16, 4.96, 4.88, 5.1, 3.77, 4.87, 5.48, 4.76, 3.32, 1.6, 0.83, 3.9, 7.23, 6.43, 4.1, 3.28, 4.91, 5.45, 5.55, 5.73, 7.11, 8.99, 9.8, 8.86, 7.93, 8.1, 8.85, 7.03, 4.47, 2.0, 2.0, 1.83, -0.0, 1.39, 2.89, 5.14, 6.7, 6.83, 6.01, 4.81, 4.19, 3.72, 2.9, 2.23, -0.0, -0.73, -0.0, 1.44, 2.44, 2.35, 2.47, 2.35, 3.32, 5.6, 5.81, 5.51, 4.77, 4.44, 4.02, 4.02, 4.02, 3.58, 3.58, 3.13, 3.13, 3.07, 2.63, 2.4, 2.91, 2.91, 3.07, 3.32, 3.39, 3.53, 3.58, 4.02, 4.02, 3.98, 4.3, 3.6, 2.68, 2.4, 2.0, 3.16, 4.11, 4.54, 4.11, 4.11, 4.11, 4.81, 5.06, 5.82, 6.44, 6.82, 6.44, 5.82, 5.15, 4.02, 2.4, 2.33, 2.46, 3.7, 3.7, 3.7, 3.7, 1.5, 0.74, 1.13, 2.28, 4.72, 9.17, 7.08, 3.91, 3.14, 4.98, 5.48, 4.93, 4.93, 5.72, 6.48, 7.27, 7.27, 8.12, 8.99, 7.51, 3.16, 0.0, 0.88, 3.13, 1.75, 1.62, 3.11, 4.4, 5.28, 7.18, 7.27, 8.03, 6.73, 5.37, 3.55, 2.9, 3.06, 1.54, -0.0, -0.0, 1.52, 1.6, 2.47, 2.57, 3.45, 3.91, 6.0, 5.6, 5.31, 5.09, 4.44, 3.98, 4.02, 4.02, 4.02, 3.58, 3.58, 3.13, 3.07, 3.07, 3.07, 2.91, 2.91, 3.39, 3.39, 3.98, 4.02, 4.02, 4.02, 4.02, 4.02, 4.02, 3.58, 2.68, 2.24, 1.79, 1.86, 2.95, 4.74, 4.11, 4.11, 3.63, 4.01, 4.58, 5.49, 6.21, 6.21, 5.58, 4.74, 3.91, 3.6, 2.69, 2.4, 2.69, 2.54, 3.6, 3.91, 2.49, 1.1, 1.1, 2.32, 3.07, 5.81, 7.76, 6.69, 3.25, 3.29, 4.65, 5.6, 6.08, 5.28, 4.96, 3.02, 4.24, 6.4, 8.56, 9.6, 7.78, 3.35, 0.0, 2.68, 3.33, 3.36, 4.92, 5.52, 6.42, 6.83, 8.38, 8.32, 8.3, 7.31, 6.53, 4.96, 4.12, 2.97, 2.21, 1.43, 0.72, 1.47, 1.68, 2.23, 3.15, 3.27, 3.91, 5.75, 5.6, 5.81, 5.09, 4.77, 4.44, 3.98, 4.02, 4.02, 4.02, 3.58, 3.58, 3.58, 3.09, 2.91, 2.91, 3.39, 3.82, 3.87, 3.98, 4.43, 4.44, 4.47, 4.02, 3.98, 3.53, 3.07, 2.6, 1.7, 1.2, 1.26, 1.6, 4.02, 4.02, 4.02, 3.91, 3.6, 4.58, 6.28, 5.21, 4.89, 5.37, 3.68, 4.14, 3.6, 2.69, 2.69, 2.54, 2.4, 3.68, 4.02, 3.76, 2.4, 2.73, 4.09, 4.24, 4.77, 5.46, 5.49, 5.0, 4.2, 4.88, 5.98, 6.24, 5.72, 3.35, 2.13, 4.6, 6.95, 8.73, 8.31, 8.03, 5.58, 4.0, 3.72, 5.76, 6.7, 7.48, 7.9, 8.31, 8.38, 9.42, 8.8, 8.14, 6.06, 6.53, 5.9, 4.92, 3.69, 3.16, 2.41, 2.21, 1.5, 2.28, 3.06, 4.12, 4.0, 4.0, 5.89, 6.0, 5.81, 5.57, 5.24, 4.34, 4.43, 3.98, 3.98, 4.02, 4.02, 3.58, 3.58, 3.53, 3.39, 3.2, 3.6, 3.87, 4.3, 4.34, 4.44, 4.88, 4.92, 4.92, 4.43, 3.82, 2.68, 1.9, 1.24, 0.89, 1.2, 1.76, 2.86, 4.02, 2.66, 2.35, 3.55, 4.29, 5.06, 4.74, 3.63, 3.33, 4.14, 3.8, 3.6, 2.54, 2.69, 3.6, 3.91, 5.06, 5.06, 4.74, 5.01, 4.65, 4.24, 3.82, 3.35, 3.49, 5.31, 7.27, 6.64, 6.95, 6.32, 6.87, 4.74, 2.4, 1.58, 5.21, 7.56, 8.37, 7.35, 8.67, 8.95, 8.43, 8.38, 9.34, 10.28, 10.66, 10.29, 10.28, 10.0, 9.49, 8.72, 7.2, 5.77, 5.1, 5.9, 5.0, 4.17, 3.91, 3.29, 2.21, 2.89, 3.61, 3.88, 3.88, 3.61, 3.61, 6.28, 6.0, 5.6, 5.4, 5.09, 4.77, 4.44, 4.43, 3.98, 4.02, 4.02, 4.02, 3.58, 3.53, 3.39, 3.6, 3.7, 4.11, 4.11, 4.6, 5.24, 5.36, 5.36, 4.89, 4.77, 3.6, 2.23, 1.16, 0.54, 1.2, 1.8, 2.4, 2.2, 3.0, 2.6, 2.47, 2.64, 3.2, 4.02, 4.02, 2.66, 2.64, 3.6, 3.55, 3.8, 3.8, 3.8, 5.31, 5.03, 5.93, 6.52, 6.52, 5.93, 6.13, 5.75, 5.75, 5.75, 6.13, 6.63, 7.21, 7.56, 7.21, 7.07, 5.93, 4.74, 1.7, 2.49, 4.75, 6.95, 7.27, 9.66, 10.8, 12.72, 12.56, 12.79, 12.89, 13.51, 13.49, 12.79, 11.2, 10.15, 8.95, 7.76, 6.08, 5.53, 5.1, 5.21, 4.17, 4.06, 4.21, 3.53, 3.02, 3.02, 3.69, 4.07, 3.61, 4.2, 4.2, 6.28, 5.89, 6.0, 5.81, 5.57, 5.24, 4.77, 4.43, 3.98, 4.02, 4.02, 4.02, 3.58, 3.39, 3.39, 3.6, 3.6, 3.72, 4.4, 5.51, 5.78, 5.36, 4.88, 4.88, 4.44, 3.07, 1.88, 1.2, 1.6, 1.88, 2.4, 2.84, 2.44, 2.22, 1.76, 1.99, 0.96, 3.22, 2.8, 4.02, 4.29, 3.68, 4.29, 3.91, 5.03, 4.71, 5.31, 6.01, 6.63, 7.07, 6.9, 5.93, 5.93, 5.93, 5.93, 5.93, 5.93, 6.28, 6.63, 7.21, 7.21, 8.15, 7.44, 6.52, 4.74, 2.76, 1.7, 3.45, 4.71, 7.27, 11.6, 13.91, 15.84, 15.61, 15.24, 14.79, 15.76, 15.9, 14.71, 12.15, 10.0, 8.05, 6.79, 5.94, 5.76, 5.06, 4.13, 4.17, 4.06, 4.81, 4.65, 4.01, 3.46, 4.23, 4.92, 4.07, 4.5, 4.5, 6.28, 6.28, 6.1, 5.81, 5.4, 5.09, 4.77, 4.34, 4.43, 3.98, 4.02, 4.02, 3.53, 3.39, 3.32, 4.57, 3.6, 3.72, 4.17, 5.31, 4.89, 3.58, 3.07, 4.57, 4.57, 4.24, 1.79, 3.39, 3.93, 3.49, 3.49, 3.49, 2.86, 2.48, 2.23, 1.61, 1.2, 1.9, 3.16, 4.43, 3.63, 4.19, 5.06, 5.37, 5.31, 6.01, 6.63, 6.63, 7.07, 7.07, 7.07, 6.63, 6.28, 5.93, 5.69, 6.01, 6.01, 5.72, 6.3, 7.56, 7.81, 7.44, 7.44, 5.82, 4.81, 3.47, 2.47, 3.22, 4.43, 7.07, 11.21, 15.1, 18.39, 18.6, 17.44, 16.22, 15.91, 16.22, 15.56, 12.8, 8.05, 7.06, 6.64, 6.64, 6.53, 5.29, 4.13, 4.4, 4.06, 4.24, 5.6, 4.75, 4.01, 4.5, 4.8, 4.71, 4.83, 4.83, 6.03, 6.28, 6.1, 6.0, 5.81, 5.57, 5.24, 4.77, 4.44, 4.44, 4.47, 4.02, 3.54, 3.53, 3.39, 3.2, 3.07, 3.35, 4.98, 5.6, 5.51, 2.79, 2.84, 4.43, 4.43, 4.89, 4.89, 4.29, 4.94, 4.94, 4.65, 4.07, 3.48, 2.86, 2.51, 2.21, 1.86, 1.86, 2.5, 3.14, 3.48, 4.07, 4.29, 4.65, 5.01, 6.9, 6.9, 7.6, 7.6, 7.6, 6.63, 6.01, 6.01, 5.31, 4.95, 5.24, 6.01, 5.21, 6.73, 7.56, 7.44, 7.6, 7.2, 6.52, 4.01, 3.55, 3.55, 4.58, 5.46, 7.76, 10.43, 15.35, 18.6, 19.86, 18.76, 16.52, 15.45, 14.66, 12.41, 9.9, 8.43, 7.76, 7.76, 7.41, 6.64, 5.04, 4.6, 5.09, 4.23, 4.23, 4.87, 5.72, 5.63, 5.41, 5.95, 5.9, 5.76, 5.76, 6.41, 6.28, 6.51, 6.1, 5.81, 5.57, 5.09, 4.77, 4.34, 4.44, 4.44, 4.02, 4.02, 3.53, 3.39, 3.2, 3.2, 3.2, 3.6, 5.2, 5.6, 4.07, 4.37, 4.65, 4.55, 4.93, 5.08, 5.21, 5.37, 5.47, 5.08, 4.55, 4.0, 3.43, 3.35, 3.07, 2.4, 2.15, 2.21, 2.84, 2.86, 3.48, 4.07, 4.65, 4.65, 6.52, 6.52, 7.2, 7.6, 7.2, 6.28, 5.31, 5.59, 4.96, 4.96, 5.24, 5.89, 5.94, 7.21, 7.44, 7.07, 7.6, 6.9, 5.37, 3.72, 3.55, 4.16, 5.77, 6.06, 7.44, 9.65, 13.35, 17.47, 18.03, 15.2, 11.66, 9.08, 9.24, 9.35, 8.95, 9.05, 9.04, 9.05, 7.92, 6.95, 5.52, 4.8, 5.3, 5.86, 4.87, 4.8, 5.86, 6.45, 5.95, 6.51, 6.58, 5.94, 5.94, 6.41, 6.28, 6.28, 6.1, 6.3, 5.81, 5.57, 5.24, 4.77, 4.77, 4.44, 4.47, 4.02, 3.98, 3.82, 3.82, 3.6, 3.82, 3.87, 4.3, 5.02, 5.08, 5.47, 5.08, 5.31, 4.9, 4.9, 5.31, 5.4, 5.4, 5.4, 5.31, 4.8, 4.4, 4.11, 3.6, 3.07, 2.79, 2.84, 2.86, 3.15, 3.48, 4.07, 4.07, 4.29, 4.93, 7.2, 7.63, 7.2, 6.9, 5.03, 5.31, 4.96, 4.96, 5.59, 4.96, 5.36, 5.76, 7.21, 6.63, 5.82, 6.21, 5.82, 4.74, 4.16, 4.16, 4.95, 4.95, 4.83, 6.01, 7.27, 10.69, 12.87, 13.43, 2.68, 2.0, 3.58, 5.75, 7.21, 8.24, 9.65, 9.52, 9.65, 8.38, 6.57, 5.72, 5.72, 5.93, 6.53, 5.86, 5.62, 5.86, 6.71, 7.22, 7.27, 6.64, 6.32, 6.32, 6.41, 6.41, 6.67, 6.51, 6.1, 5.88, 5.57, 5.57, 5.24, 4.8, 4.88, 4.47, 4.47, 3.98, 3.87, 3.87, 3.87, 3.87, 4.3, 4.34, 4.77, 5.09, 4.9, 4.9, 4.9, 4.9, 5.09, 5.09, 5.51, 5.57, 5.57, 5.57, 5.51, 5.09, 5.09, 4.6, 4.11, 3.43, 2.86, 3.12, 3.49, 3.49, 4.07, 4.41, 4.65, 4.65, 6.52, 7.06, 6.52, 6.28, 5.31, 5.31, 5.31, 6.01, 5.59, 4.96, 5.1, 5.76, 6.3, 5.49, 5.15, 5.15, 5.37, 4.95, 4.42, 5.24, 5.24, 4.95, 4.42, 3.4, 4.96, 6.3, 14.3, 12.18, 6.52, 4.11, 5.43, 7.28, 8.14, 8.91, 9.08, 9.9, 9.42, 7.48, 6.43, 5.67, 6.31, 6.43, 7.25, 7.9, 6.36, 7.15, 7.52, 7.94, 7.64, 7.31, 6.64, 6.64, 6.56, 6.56, 6.41, 6.28, 6.1, 6.3, 5.99, 5.57, 5.26, 5.24, 4.89, 4.92, 4.47, 4.47, 3.98, 3.87, 4.3, 4.34, 4.34, 4.34, 4.6, 4.6, 4.6, 4.8, 4.8, 4.9, 4.9, 5.09, 5.51, 5.57, 5.57, 5.57, 5.57, 5.7, 5.7, 5.51, 4.8, 4.0, 3.49, 2.84, 3.49, 4.11, 4.37, 4.65, 4.65, 4.65, 6.9, 6.9, 6.9, 6.63, 6.63, 6.63, 6.63, 5.03, 5.31, 4.71, 4.42, 4.83, 6.01, 5.59, 4.58, 4.29, 4.95, 5.1, 5.24, 5.1, 5.1, 6.3, 4.26, 3.55, 4.29, 11.4, 16.69, 17.68, 15.77, 12.79, 11.8, 11.99, 11.4, 8.82, 8.94, 8.94, 8.4, 6.44, 5.6, 6.43, 6.43, 7.01, 8.18, 8.95, 8.12, 7.9, 7.94, 7.96, 7.95, 7.31, 6.95, 6.95, 6.95, 6.95, 6.56, 6.67, 6.28, 6.51, 5.88, 5.99, 5.57, 5.7, 5.33, 5.33, 4.92, 4.47, 4.44, 4.44, 4.44, 4.44, 4.77, 4.77, 4.6, 4.6, 4.6, 5.02, 4.8, 4.9, 4.9, 5.31, 5.51, 5.57, 5.57, 5.99, 6.14, 6.14, 6.16, 6.04, 5.57, 4.55, 3.79, 3.49, 3.49, 4.11, 4.71, 4.71, 5.01, 5.21, 5.81, 6.79, 7.21, 7.21, 6.72, 7.6, 6.52, 5.37, 5.03, 5.31, 5.31, 4.29, 4.14, 4.96, 5.21, 4.42, 4.95, 5.53, 5.1, 4.96, 5.21, 5.64, 5.06, 5.06, 7.12, 10.25, 16.37, 17.47, 17.38, 15.77, 13.84, 12.74, 11.62, 8.0, 7.21, 7.11, 6.64, 5.95, 5.72, 6.33, 7.12, 7.38, 8.66, 9.43, 10.86, 9.57, 8.58, 8.06, 7.33, 7.31, 6.95, 6.95, 6.7, 6.7, 6.95, 6.8, 6.28, 6.51, 6.3, 6.04, 5.99, 5.7, 5.7, 5.34, 5.36, 4.92, 4.92, 4.92, 4.92, 4.88, 4.77, 4.6, 4.6, 4.6, 5.02, 5.02, 5.02, 5.02, 5.09, 5.51, 5.57, 5.57, 5.99, 5.99, 6.14, 6.16, 6.16, 6.6, 6.47, 5.4, 4.65, 4.11, 3.83, 4.43, 4.71, 4.94, 5.29, 5.75, 6.3, 6.94, 6.94, 7.06, 6.6, 5.7, 6.64, 5.37, 5.03, 5.31, 5.03, 5.37, 3.91, 4.14, 5.59, 6.64, 5.24, 5.24, 5.1, 5.21, 5.06, 4.92, 5.64, 6.32, 7.42, 10.91, 12.58, 15.61, 16.31, 15.99, 14.68, 12.01, 8.49, 5.09, 4.6, 5.31, 5.64, 5.86, 6.53, 7.38, 8.18, 8.18, 9.06, 9.53, 11.25, 10.45, 9.19, 7.95, 7.68, 7.68, 7.64, 7.64, 6.7, 6.7, 6.95, 6.56, 6.8, 6.51, 6.51, 6.3, 6.04, 5.99, 5.7, 5.7, 5.34, 5.36, 5.36, 5.36, 5.36, 4.89, 4.77, 4.77, 4.6, 5.02, 5.09, 5.02, 4.6, 4.6, 5.02, 5.09, 5.51, 5.57, 5.99, 5.99, 6.04, 6.04, 6.16, 6.6, 6.61, 6.6, 5.81, 5.21, 4.71, 4.43, 5.05, 5.29, 5.75, 6.51, 6.79, 6.94, 7.06, 6.6, 5.78, 4.77, 4.27, 4.07, 4.29, 5.06, 6.28, 5.37, 2.8, 3.33, 5.03, 5.69, 6.32, 4.83, 4.88, 4.96, 4.83, 4.96, 6.18, 7.41, 8.95, 10.68, 12.27, 13.72, 14.3, 15.03, 15.9, 12.65, 8.33, 5.36, 5.29, 6.08, 6.88, 6.44, 6.62, 7.19, 8.84, 9.7, 9.8, 10.28, 10.19, 10.82, 10.28, 9.0, 8.3, 8.58, 8.58, 8.58, 6.7, 6.7, 6.7, 6.95, 6.8, 6.8, 6.51, 6.51, 6.3, 6.04, 6.04, 5.7, 5.78, 5.78, 5.81, 5.81, 5.36, 5.33, 4.8, 4.77, 4.77, 5.09, 5.09, 5.09, 4.6, 4.6, 4.6, 4.66, 5.09, 5.09, 5.57, 5.99, 6.16, 6.16, 6.16, 6.68, 6.68, 6.16, 5.81, 5.21, 4.71, 4.71, 5.29, 5.29, 5.75, 6.51, 6.79, 6.79, 6.94, 6.16, 5.24, 4.27, 4.07, 3.79, 3.48, 4.43, 5.06, 5.37, 3.33, 3.72, 4.29, 5.49, 5.37, 4.83, 5.1, 5.98, 5.89, 5.69, 6.18, 7.42, 9.75, 10.75, 11.84, 11.84, 12.53, 14.4, 16.22, 15.13, 11.87, 9.33, 9.24, 8.54, 8.44, 7.9, 7.44, 7.73, 9.13, 10.51, 10.9, 10.63, 10.28, 11.28, 11.25, 10.19, 9.21, 9.21, 9.19, 9.19, 6.79, 6.79, 6.7, 6.95, 6.56, 6.8, 6.4, 6.51, 6.72, 6.3, 6.04, 6.04, 6.14, 5.7, 5.79, 5.81, 5.81, 5.34, 5.33, 5.24, 5.24, 5.24, 5.24, 5.24, 4.8, 5.02, 5.02, 5.09, 5.09, 5.24, 5.7, 5.7, 6.23, 6.23, 6.23, 6.23, 6.23, 6.14, 5.81, 5.47, 5.21, 5.21, 5.01, 6.18, 6.82, 6.28, 6.79, 6.47, 5.4, 5.51, 4.55, 4.37, 4.71, 3.79, 3.48, 3.16, 4.74, 4.29, 3.72, 4.01, 4.43, 4.81, 5.15, 5.15, 5.1, 5.76, 6.53, 6.79, 6.16, 6.94, 8.56, 10.25, 11.87, 12.27, 12.96, 14.73, 15.65, 15.91, 15.35, 14.21, 12.09, 9.92, 9.48, 9.37, 9.53, 9.53, 10.19, 11.28, 11.28, 11.28, 10.28, 10.91, 11.44, 10.82, 10.81, 10.41, 10.15, 10.15, 6.79, 6.79, 7.07, 6.7, 6.95, 6.8, 6.8, 6.6, 6.6, 6.79, 6.72, 6.47, 6.04, 6.16, 6.16, 6.23, 5.81, 5.81, 5.34, 5.24, 5.24, 5.26, 5.7, 5.51, 5.09, 5.09, 5.09, 5.09, 5.09, 5.7, 5.78, 5.78, 6.26, 6.26, 6.23, 5.7, 5.57, 5.81, 5.6, 5.6, 5.47, 5.47, 5.21, 4.84, 5.21, 7.76, 7.35, 5.6, 5.58, 5.49, 5.86, 5.75, 4.71, 4.07, 3.48, 3.43, 3.43, 3.43, 4.11, 4.11, 4.54, 5.21, 5.15, 5.06, 5.69, 5.69, 6.32, 7.9, 6.21, 5.51, 5.75, 8.05, 12.23, 15.52, 15.62, 14.66, 13.76, 13.41, 14.84, 15.35, 13.49, 10.62, 10.3, 10.59, 11.16, 11.42, 11.3, 11.47, 11.47, 11.04, 10.19, 11.28, 11.79, 11.9, 11.79, 11.37, 10.73, 10.73, 6.79, 6.79, 6.79, 6.7, 6.95, 6.95, 6.8, 6.8, 7.01, 6.6, 6.79, 6.79, 6.47, 6.6, 6.16, 6.23, 6.26, 5.81, 5.78, 5.78, 5.78, 5.7, 5.7, 5.57, 5.51, 5.51, 5.51, 5.51, 5.57, 5.7, 5.78, 5.78, 5.78, 5.7, 5.57, 5.81, 5.6, 5.6, 5.6, 5.81, 5.81, 5.81, 5.47, 5.08, 5.47, 7.12, 8.06, 6.28, 6.67, 6.67, 6.51, 5.81, 4.9, 4.37, 4.0, 4.0, 3.43, 3.72, 3.72, 4.19, 4.54, 5.21, 5.82, 5.82, 5.82, 5.15, 5.82, 7.07, 6.28, 5.01, 4.54, 5.77, 10.23, 16.31, 19.31, 16.09, 12.04, 10.28, 11.8, 14.17, 14.68, 13.45, 11.99, 12.54, 12.95, 12.62, 12.11, 11.95, 10.79, 10.09, 9.82, 10.79, 11.75, 12.33, 12.33, 11.94, 11.3, 11.3, 6.79, 6.79, 6.79, 6.7, 6.7, 6.95, 6.95, 6.8, 6.8, 7.01, 7.01, 6.79, 6.79, 6.51, 6.6, 6.68, 6.26, 6.26, 6.26, 6.23, 6.23, 6.16, 5.99, 5.99, 5.57, 5.57, 5.57, 5.57, 6.94, 5.7, 5.7, 5.57, 5.57, 5.81, 5.6, 6.0, 6.0, 6.0, 6.23, 5.81, 6.04, 5.81, 5.81, 5.6, 5.81, 6.47, 6.79, 7.51, 7.51, 7.26, 6.94, 5.99, 5.09, 4.8, 4.93, 4.55, 4.0, 4.27, 3.88, 3.88, 4.84, 5.58, 6.21, 6.4, 6.21, 6.16, 5.2, 5.75, 6.28, 6.52, 5.82, 6.4, 8.6, 14.31, 19.8, 19.4, 12.42, 9.06, 10.43, 13.42, 15.72, 15.34, 14.39, 13.53, 13.32, 13.21, 11.87, 10.62, 10.23, 9.19, 9.78, 10.73, 11.69, 12.39, 12.79, 12.25, 11.6, 11.6, 7.15, 7.15, 6.79, 7.07, 6.7, 6.7, 6.95, 7.2, 6.8, 7.01, 7.01, 7.21, 6.79, 6.94, 6.61, 6.68, 6.68, 6.71, 6.71, 6.23, 6.23, 6.16, 6.04, 5.99, 5.99, 5.57, 5.57, 5.57, 5.57, 7.37, 5.31, 5.4, 5.6, 5.6, 5.6, 6.0, 6.1, 6.3, 6.3, 6.47, 6.47, 6.47, 5.88, 5.81, 5.81, 6.3, 6.94, 7.4, 7.4, 6.97, 6.61, 5.99, 5.31, 5.08, 5.21, 5.21, 5.21, 4.55, 4.0, 4.27, 4.55, 5.82, 6.9, 5.82, 6.21, 5.82, 5.21, 5.2, 6.64, 7.63, 7.35, 7.42, 8.05, 11.6, 18.7, 21.07, 15.84, 11.62, 12.22, 14.13, 15.76, 15.76, 14.84, 14.07, 12.46, 11.99, 11.12, 10.55, 10.66, 9.67, 10.28, 10.65, 11.47, 12.4, 12.92, 12.7, 11.47, 11.47, 7.35, 7.35, 7.23, 7.07, 6.7, 6.7, 6.95, 6.95, 7.2, 7.31, 7.09, 7.09, 7.26, 7.26, 6.94, 6.61, 6.68, 6.71, 6.71, 6.68, 6.68, 6.6, 6.04, 5.99, 5.99, 5.99, 5.99, 5.99, 5.99, 5.99, 5.81, 5.81, 5.81, 5.81, 5.81, 5.81, 5.81, 6.04, 6.04, 6.47, 6.6, 6.6, 6.47, 6.3, 6.3, 6.47, 6.94, 7.51, 7.51, 7.06, 6.6, 5.99, 5.47, 5.21, 5.29, 5.29, 5.58, 5.21, 4.55, 4.55, 6.52, 6.08, 6.28, 6.28, 5.49, 5.82, 5.82, 5.82, 6.64, 7.21, 7.63, 8.41, 8.49, 10.25, 16.07, 19.52, 18.06, 15.1, 13.83, 14.59, 15.05, 14.47, 13.83, 12.92, 12.01, 10.62, 11.08, 10.68, 11.04, 10.48, 10.4, 11.09, 11.3, 12.44, 12.92, 12.92, 11.8, 11.8, 7.61, 7.61, 7.61, 7.23, 7.07, 6.7, 6.7, 6.95, 6.95, 7.31, 7.31, 7.51, 7.51, 7.26, 7.26, 7.06, 7.13, 6.71, 6.71, 6.68, 6.68, 6.61, 6.6, 6.16, 6.16, 6.14, 6.14, 6.14, 6.14, 6.04, 5.99, 5.99, 5.57, 5.57, 5.57, 5.57, 5.99, 5.99, 6.04, 6.16, 6.61, 6.61, 6.61, 6.47, 6.47, 6.51, 7.06, 7.07, 7.07, 7.06, 6.47, 5.81, 5.37, 5.29, 5.29, 5.49, 5.75, 5.21, 5.21, 4.65, 4.41, 6.28, 6.28, 6.28, 6.28, 6.28, 5.82, 6.4, 6.4, 7.21, 7.71, 8.17, 8.41, 10.6, 14.55, 17.19, 17.79, 16.71, 15.35, 14.11, 12.88, 12.33, 12.18, 12.01, 11.72, 10.91, 11.08, 11.44, 11.2, 10.8, 11.21, 11.45, 12.09, 12.18, 12.79, 12.35, 11.52, 11.52, 7.61, 7.61, 7.61, 7.61, 7.23, 7.48, 6.95, 6.95, 6.95, 6.95, 7.31, 7.31, 7.51, 7.69, 7.26, 7.4, 7.13, 6.71, 6.71, 6.68, 6.68, 6.61, 6.61, 6.6, 6.16, 6.16, 6.16, 6.14, 6.16, 6.16, 6.16, 6.14, 5.57, 5.57, 5.7, 5.7, 5.7, 6.14, 6.16, 6.16, 6.68, 7.13, 7.06, 6.61, 6.51, 6.6, 6.61, 7.06, 7.06, 7.06, 6.47, 6.0, 5.75, 5.49, 5.49, 5.75, 5.75, 5.75, 5.21, 4.65, 4.71, 4.71, 6.28, 5.82, 6.44, 7.6, 6.4, 6.7, 7.12, 7.21, 8.17, 7.76, 9.21, 11.37, 13.72, 14.92, 15.9, 16.95, 17.13, 15.04, 12.92, 11.95, 12.01, 12.01, 11.8, 11.47, 11.75, 11.34, 11.62, 11.62, 11.87, 11.71, 12.27, 12.42, 12.43, 11.99, 11.28, 11.28, 7.76, 7.76, 7.76, 7.76, 7.61, 7.48, 7.48, 6.95, 6.95, 6.95, 7.2, 7.31, 7.51, 7.26, 7.4, 7.4, 7.13, 7.15, 7.15, 7.15, 7.13, 6.68, 6.61, 6.61, 6.16, 6.16, 6.16, 6.16, 6.16, 6.16, 6.16, 6.14, 5.7, 5.7, 5.7, 5.7, 5.7, 5.7, 6.16, 6.16, 6.68, 7.13, 7.13, 8.33, 6.47, 6.47, 6.47, 6.61, 7.06, 6.51, 6.1, 5.75, 5.49, 5.75, 5.75, 5.75, 6.0, 5.75, 4.65, 4.65, 4.71, 4.71, 6.9, 6.21, 6.8, 8.22, 6.7, 6.4, 6.4, 6.8, 7.03, 7.44, 9.2, 11.62, 13.23, 13.29, 13.99, 16.46, 17.89, 16.38, 14.27, 13.6, 13.42, 12.72, 12.22, 11.8, 11.72, 11.62, 11.62, 11.95, 12.58, 12.3, 12.42, 12.49, 12.04, 10.63, 9.74, 10.63, 7.76, 7.76, 7.76, 7.76, 8.0, 8.0, 7.48, 7.48, 7.08, 7.2, 7.2, 7.51, 7.09, 7.26, 7.4, 7.51, 7.07, 7.15, 7.15, 7.15, 7.15, 6.68, 6.68, 6.68, 6.68, 6.68, 6.23, 6.23, 6.23, 6.23, 6.23, 6.16, 6.14, 5.7, 5.7, 5.7, 5.7, 5.78, 6.23, 6.23, 6.68, 7.13, 7.13, 8.33, 6.94, 6.79, 6.51, 6.47, 6.3, 6.1, 6.28, 6.13, 5.75, 5.75, 6.0, 6.1, 6.0, 5.6, 4.65, 4.65, 4.65, 4.71, 6.63, 6.21, 6.8, 7.6, 7.2, 6.44, 6.44, 6.44, 5.69, 7.21, 9.2, 10.75, 12.8, 13.01, 13.18, 15.01, 15.69, 14.62, 14.14, 14.39, 15.2, 14.77, 13.15, 12.22, 11.8, 11.95, 11.95, 12.14, 12.3, 12.3, 11.98, 11.96, 11.51, 10.18, 9.58, 9.74, 7.76, 7.76, 7.76, 7.76, 7.76, 8.0, 8.0, 7.48, 7.48, 7.31, 7.31, 7.51, 7.09, 7.26, 7.4, 7.51, 7.07, 7.13, 7.15, 7.15, 6.71, 6.71, 6.68, 6.68, 6.68, 6.68, 6.68, 6.23, 6.23, 6.23, 6.23, 6.23, 6.23, 6.14, 5.7, 5.78, 5.78, 6.23, 6.23, 6.23, 6.71, 7.15, 7.15, 7.13, 8.77, 7.4, 6.79, 6.3, 6.0, 6.13, 6.28, 6.28, 6.1, 6.1, 6.1, 6.1, 6.0, 5.47, 5.08, 4.65, 4.65, 4.71, 5.01, 6.63, 6.9, 6.9, 5.82, 6.44, 6.44, 6.01, 6.01, 6.79, 8.79, 9.2, 11.2, 12.23, 13.49, 13.49, 13.29, 12.92, 12.79, 14.68, 16.14, 15.96, 14.56, 12.92, 12.01, 12.14, 11.66, 11.66, 12.3, 12.3, 11.86, 11.96, 11.06, 9.54, 8.97, 9.58, 7.76, 7.76, 7.76, 7.76, 7.76, 8.0, 8.0, 8.0, 7.48, 7.71, 7.31, 7.51, 7.09, 7.26, 7.4, 7.07, 7.07, 7.13, 7.15, 7.15, 6.71, 6.71, 6.71, 6.71, 6.68, 6.68, 6.68, 6.68, 6.23, 6.23, 6.23, 6.23, 6.23, 6.23, 6.23, 6.23, 6.23, 6.23, 6.23, 6.71, 7.15, 7.15, 7.15, 7.15, 7.58, 8.8, 6.79, 6.1, 6.0, 6.0, 6.1, 6.1, 6.3, 6.3, 6.3, 6.3, 6.0, 5.08, 5.08, 5.08, 4.65, 4.37, 6.28, 6.28, 6.63, 6.01, 6.18, 6.63, 5.37, 5.59, 6.73, 6.79, 7.81, 8.15, 8.94, 11.93, 14.13, 15.43, 13.83, 12.86, 12.9, 14.93, 16.24, 16.68, 15.04, 12.66, 11.71, 11.23, 11.4, 11.84, 11.86, 12.3, 11.98, 11.51, 10.02, 8.82, 9.03, 9.03, 8.15, 8.15, 7.76, 7.76, 7.76, 7.76, 8.0, 8.0, 7.6, 7.71, 7.31, 7.51, 7.26, 7.26, 6.97, 7.07, 7.07, 7.13, 7.13, 7.15, 7.15, 6.71, 6.71, 7.15, 7.15, 6.68, 6.68, 6.68, 6.68, 6.68, 6.23, 6.23, 6.23, 6.23, 6.23, 6.23, 6.23, 6.23, 6.71, 7.15, 7.15, 7.15, 7.15, 7.15, 7.6, 8.03, 7.4, 6.79, 6.3, 6.3, 6.3, 6.3, 6.3, 6.3, 6.3, 6.3, 5.81, 5.31, 5.08, 5.08, 4.65, 5.01, 4.71, 6.28, 6.28, 6.01, 6.32, 6.01, 4.95, 6.01, 6.39, 6.44, 7.07, 6.39, 8.15, 10.59, 13.88, 16.74, 16.11, 14.5, 14.24, 15.7, 17.33, 17.39, 15.04, 12.27, 10.45, 10.45, 10.93, 11.4, 11.96, 11.98, 11.15, 10.16, 8.06, 9.05, 9.05, 9.05, 8.15, 8.15, 7.76, 7.76, 7.76, 7.76, 7.76, 8.0, 8.0, 7.71, 7.31, 7.51, 7.26, 7.4, 6.94, 7.07, 7.07, 7.07, 7.13, 7.15, 7.15, 7.15, 7.15, 7.15, 7.15, 7.15, 7.13, 6.68, 6.68, 6.68, 6.68, 6.23, 6.23, 6.23, 6.23, 6.23, 6.26, 6.71, 6.71, 7.15, 7.15, 7.15, 7.15, 7.6, 7.6, 8.05, 7.58, 6.97, 6.47, 6.3, 5.88, 6.47, 6.47, 6.47, 6.3, 6.3, 5.81, 5.4, 5.31, 5.08, 5.08, 5.01, 4.71, 5.69, 5.03, 6.01, 6.32, 6.32, 5.69, 5.69, 6.44, 5.77, 6.06, 7.41, 8.06, 9.65, 12.27, 14.88, 15.44, 15.39, 16.06, 17.25, 18.33, 18.0, 15.54, 11.71, 9.26, 9.26, 10.6, 11.08, 11.15, 10.7, 9.26, 8.06, 8.42, 9.27, 9.27, 9.27, 7.9, 7.9, 7.76, 7.76, 7.76, 7.76, 8.0, 8.0, 8.0, 7.81, 7.71, 7.51, 7.26, 6.94, 6.94, 7.07, 7.51, 7.51, 7.13, 7.15, 7.15, 7.15, 7.15, 7.15, 7.15, 7.15, 7.15, 7.13, 6.68, 6.68, 6.68, 6.68, 6.23, 6.23, 6.23, 6.26, 6.71, 6.71, 7.15, 7.15, 7.15, 7.15, 7.15, 7.6, 7.6, 8.05, 8.03, 7.97, 6.94, 6.47, 6.04, 6.04, 6.47, 6.47, 6.47, 6.3, 6.3, 5.81, 5.31, 5.31, 5.08, 5.01, 4.71, 4.43, 6.01, 6.63, 6.63, 5.77, 6.11, 6.11, 6.01, 5.37, 6.01, 7.41, 8.06, 9.42, 10.63, 11.53, 12.84, 13.67, 15.25, 18.23, 19.46, 19.36, 17.59, 13.07, 8.91, 8.33, 9.36, 9.36, 10.22, 7.67, 8.06, 8.42, 9.03, 9.9, 9.9, 9.9, 7.72, 7.72, 7.61, 7.76, 7.76, 7.76, 8.0, 8.0, 8.0, 7.81, 7.81, 7.51, 7.26, 6.94, 6.97, 7.51, 7.51, 7.51, 7.58, 7.13, 7.15, 7.15, 7.15, 7.15, 7.15, 7.15, 7.15, 7.15, 7.13, 7.13, 6.68, 6.68, 6.68, 6.68, 6.71, 6.71, 6.71, 7.15, 7.15, 7.15, 7.15, 7.6, 7.6, 7.6, 7.6, 8.03, 8.03, 7.97, 7.97, 6.94, 6.47, 6.47, 6.47, 6.47, 6.47, 6.47, 6.3, 6.3, 5.81, 5.31, 5.08, 4.65, 4.71, 4.43, 4.74, 6.63, 6.28, 5.49, 5.37, 5.77, 5.69, 5.59, 6.73, 7.81, 8.43, 9.03, 9.65, 10.29, 10.58, 11.47, 13.35, 17.03, 19.71, 20.05, 20.32, 15.59, 9.6, 6.79, 6.94, 7.6, 8.37, 8.03, 8.67, 9.42, 9.9, 9.75, 9.75, 9.75, 7.35, 7.35, 7.61, 7.61, 7.61, 7.76, 8.0, 8.0, 8.0, 7.81, 8.0, 7.26, 7.4, 6.94, 7.4, 7.4, 7.4, 7.51, 7.07, 7.13, 7.15, 7.15, 7.15, 7.15, 7.15, 7.15, 7.15, 7.15, 7.15, 7.13, 7.13, 7.13, 6.68, 6.68, 6.71, 6.71, 7.15, 7.15, 7.15, 7.15, 7.6, 7.6, 7.58, 7.58, 7.58, 8.03, 8.03, 8.47, 7.97, 7.4, 6.94, 6.47, 6.47, 6.47, 6.47, 6.94, 6.94, 6.3, 5.81, 5.31, 5.08, 4.93, 4.65, 4.43, 4.45, 6.01, 5.69, 4.75, 5.03, 5.24, 5.24, 6.01, 6.73, 7.06, 7.69, 8.06, 8.68, 9.3, 9.56, 9.89, 11.14, 15.47, 18.72, 20.09, 22.31, 17.47, 9.2, 4.46, 4.74, 7.27, 9.04, 9.05, 9.03, 9.49, 9.49, 9.49, 9.49, 9.49, 7.35, 7.35, 7.61, 7.61, 7.61, 7.61, 8.0, 8.0, 8.0, 7.81, 7.51, 7.26, 7.26, 7.4, 7.4, 7.4, 7.4, 7.51, 7.07, 7.13, 7.13, 7.15, 7.15, 7.15, 7.15, 7.15, 7.15, 7.15, 7.15, 7.15, 7.15, 7.15, 7.15, 7.15, 7.15, 7.15, 7.15, 7.15, 7.15, 7.6, 7.6, 7.58, 7.58, 7.58, 7.58, 8.03, 8.03, 8.03, 7.97, 7.97, 7.4, 6.94, 6.47, 6.47, 6.61, 7.06, 6.94, 6.94, 6.47, 5.81, 5.31, 4.93, 4.29, 4.11, 4.12, 5.31, 5.31, 5.03, 5.31, 4.95, 5.69, 6.39, 6.73, 7.41, 7.35, 7.35, 7.64, 7.9, 8.93, 9.56, 10.24, 13.51, 16.09, 19.48, 23.34, 19.08, 8.8, 3.11, 6.71, 8.57, 9.67, 9.6, 8.95, 8.95, 9.2, 9.27, 9.27, 9.27, 7.61, 7.61, 7.61, 7.61, 7.61, 7.61, 7.87, 8.0, 8.0, 7.71, 7.51, 7.26, 7.26, 7.26, 7.26, 7.4, 7.4, 7.4, 7.07, 7.07, 7.13, 7.13, 7.15, 7.15, 7.15, 7.15, 7.15, 7.15, 7.15, 7.15, 7.15, 7.15, 7.15, 7.15, 7.15, 7.15, 7.15, 7.6, 7.6, 7.6, 7.58, 7.58, 7.58, 8.03, 8.03, 8.03, 8.03, 7.97, 7.97, 7.97, 7.87, 7.4, 6.94, 6.47, 6.61, 7.06, 7.06, 7.06, 6.51, 6.04, 5.31, 4.8, 4.37, 4.07, 3.49, 4.29, 4.16, 4.95, 5.24, 5.24, 6.01, 5.24, 6.01, 6.64, 6.53, 7.27, 7.27, 7.59, 8.22, 8.93, 10.01, 11.28, 13.18, 17.71, 23.83, 22.15, 3.8, 5.09, 7.8, 9.84, 9.78, 9.6, 9.03, 9.03, 9.27, 9.3, 9.3, 9.3, 7.61, 7.61, 7.61, 7.61, 7.23, 7.48, 7.48, 7.6, 7.71, 7.31, 7.09, 7.26, 7.26, 7.26, 7.26, 7.4, 7.4, 7.4, 7.51, 7.07, 7.13, 7.13, 7.13, 7.15, 7.15, 7.15, 7.15, 7.15, 7.15, 7.15, 7.15, 7.15, 7.15, 7.15, 7.15, 7.15, 7.6, 7.6, 7.6, 7.6, 7.58, 7.58, 8.03, 8.03, 8.03, 7.97, 7.97, 7.97, 7.97, 7.97, 7.87, 7.84, 7.4, 6.61, 6.61, 7.06, 7.06, 7.07, 6.94, 6.47, 5.57, 4.9, 4.0, 4.0, 3.48, 4.43, 4.29, 4.95, 4.83, 5.1, 5.36, 5.89, 5.24, 5.89, 5.76, 6.53, 6.88, 7.27, 7.97, 9.04, 9.04, 9.3, 10.91, 16.06, 24.51, 12.5, 5.7, 5.7, 7.9, 9.84, 10.55, 10.15, 9.19, 9.67, 9.3, 9.3, 9.3, 9.3, 7.61, 7.61, 7.61, 7.87, 7.48, 7.48, 7.48, 7.71, 7.31, 7.51, 7.09, 7.26, 7.26, 7.26, 7.26, 7.4, 7.4, 7.4, 7.51, 7.07, 7.13, 7.13, 7.13, 7.13, 7.15, 7.15, 7.15, 7.15, 7.15, 7.15, 7.15, 7.6, 7.6, 7.6, 7.6, 7.6, 7.6, 7.6, 7.6, 7.6, 7.6, 7.58, 8.03, 8.03, 8.03, 7.97, 7.97, 7.97, 7.97, 7.97, 7.97, 7.87, 7.84, 6.94, 6.61, 7.06, 7.06, 7.06, 6.94, 6.47, 5.99, 4.9, 4.4, 4.0, 3.43, 3.15, 3.63, 4.29, 4.03, 4.26, 5.1, 5.89, 5.36, 4.5, 4.96, 5.76, 7.27, 7.68, 8.42, 8.67, 8.68, 9.3, 10.63, 15.35, 23.55, 13.74, 6.92, 6.64, 7.68, 8.59, 10.55, 10.82, 10.91, 10.29, 10.28, 10.04, 10.04, 10.04, 7.61, 7.61, 7.61, 7.48, 7.48, 7.71, 7.71, 7.31, 7.51, 7.51, 7.26, 7.26, 7.69, 7.69, 7.26, 7.4, 7.4, 7.4, 7.51, 7.51, 7.58, 7.58, 7.13, 7.13, 7.13, 7.13, 7.13, 7.13, 7.58, 7.58, 7.6, 7.6, 7.6, 7.6, 7.6, 7.6, 7.6, 7.6, 7.6, 7.6, 7.6, 8.03, 8.03, 8.03, 8.03, 7.97, 7.97, 7.97, 7.97, 7.52, 7.51, 7.97, 7.87, 6.94, 6.94, 6.94, 6.94, 6.94, 6.94, 6.47, 5.99, 5.31, 4.8, 3.88, 3.72, 3.16, 3.79, 3.22, 3.33, 4.16, 4.42, 4.83, 5.1, 5.1, 5.1, 5.89, 7.35, 8.06, 8.06, 7.69, 8.32, 9.67, 11.5, 23.47, 22.79, 13.07, 6.68, 6.06, 6.35, 7.96, 10.19, 11.44, 11.9, 11.66, 11.28, 10.66, 10.66, 10.66, 7.61, 7.61, 7.23, 7.48, 7.48, 7.71, 7.31, 7.51, 7.51, 7.69, 7.69, 7.69, 7.69, 7.69, 7.84, 7.4, 7.4, 7.51, 7.51, 7.51, 7.51, 7.58, 7.58, 7.58, 7.58, 7.58, 7.58, 7.58, 7.58, 7.58, 7.58, 7.58, 7.6, 7.6, 7.6, 7.6, 7.6, 7.6, 7.6, 7.6, 8.05, 8.03, 8.03, 8.03, 8.03, 8.03, 7.97, 7.97, 7.97, 7.52, 7.51, 7.51, 7.87, 7.4, 6.94, 6.94, 6.94, 6.94, 6.94, 6.47, 5.99, 5.31, 4.8, 4.27, 3.72, 3.72, 3.16, 3.15, 3.63, 4.43, 4.01, 4.29, 4.95, 5.24, 5.69, 5.89, 7.41, 7.35, 8.06, 7.76, 8.03, 10.04, 16.33, 22.99, 21.84, 11.99, 5.46, 5.06, 5.94, 7.94, 10.19, 11.79, 12.27, 12.27, 11.88, 11.5, 11.5, 11.5, 7.23, 7.23, 7.23, 7.48, 7.08, 7.31, 7.31, 7.51, 7.51, 7.51, 7.69, 7.69, 7.69, 7.69, 7.84, 7.4, 7.4, 7.51, 7.51, 7.51, 7.51, 7.51, 7.51, 7.51, 7.51, 7.51, 7.51, 7.51, 7.58, 7.58, 7.58, 7.58, 7.58, 7.6, 7.6, 7.6, 7.6, 7.6, 7.6, 8.05, 8.05, 8.05, 8.03, 8.03, 8.03, 8.03, 8.03, 8.03, 7.97, 7.97, 7.58, 7.58, 7.97, 7.84, 6.97, 7.06, 7.06, 7.06, 6.61, 6.47, 5.99, 5.31, 4.9, 4.8, 4.27, 3.72, 3.14, 3.16, 3.35, 3.63, 3.63, 4.11, 5.15, 5.06, 5.77, 5.77, 6.73, 6.64, 7.35, 7.68, 8.03, 9.67, 15.35, 21.0, 22.88, 13.75, 5.06, 4.95, 6.58, 8.93, 10.79, 11.94, 12.86, 12.47, 12.27, 12.08, 12.08, 12.08, 7.23, 7.23, 7.48, 6.95, 7.08, 7.31, 7.31, 7.51, 7.51, 7.51, 7.69, 7.69, 7.69, 7.69, 7.84, 7.4, 7.4, 7.4, 7.51, 7.51, 7.51, 7.51, 7.51, 7.51, 7.51, 7.51, 7.51, 7.51, 7.58, 7.58, 7.58, 7.58, 7.6, 7.6, 7.6, 7.6, 7.6, 7.6, 7.6, 8.05, 8.05, 8.05, 8.05, 8.03, 8.03, 8.03, 8.03, 8.03, 8.03, 7.97, 7.58, 7.58, 7.97, 7.97, 7.97, 7.51, 7.06, 7.06, 7.06, 6.6, 5.99, 5.31, 5.31, 4.8, 4.8, 3.88, 3.35, 2.84, 2.86, 3.35, 3.63, 4.11, 4.43, 5.06, 6.11, 6.11, 5.77, 6.39, 7.02, 7.35, 8.03, 11.28, 14.39, 18.95, 23.92, 18.15, 9.21, 6.58, 7.9, 9.82, 10.79, 11.75, 12.39, 12.89, 12.86, 12.47, 12.47, 12.47, 7.48, 7.48, 6.95, 6.95, 6.95, 7.2, 7.2, 7.31, 7.51, 7.51, 7.51, 7.69, 7.69, 7.69, 7.84, 7.84, 7.4, 7.4, 7.4, 7.84, 7.84, 7.87, 7.87, 7.84, 7.51, 7.51, 7.51, 7.51, 7.58, 7.58, 7.13, 7.13, 7.15, 7.58, 7.58, 7.58, 7.6, 7.6, 7.6, 8.05, 8.05, 8.05, 8.05, 8.05, 8.05, 8.03, 8.03, 8.03, 8.03, 8.03, 8.03, 7.51, 7.97, 7.97, 7.97, 7.97, 7.51, 7.51, 7.07, 6.61, 6.04, 5.4, 5.31, 5.08, 5.08, 4.37, 3.72, 2.84, 3.16, 3.35, 3.63, 4.11, 4.01, 5.06, 5.69, 5.69, 5.37, 5.77, 6.39, 7.41, 8.67, 10.63, 12.94, 17.38, 22.36, 20.55, 13.05, 9.17, 9.53, 10.81, 10.81, 11.79, 12.97, 13.49, 12.86, 12.86, 12.86, 12.86, 7.48, 7.48, 7.08, 6.95, 6.95, 7.2, 7.2, 6.8, 7.01, 7.51, 7.51, 7.69, 7.69, 7.69, 7.69, 7.69, 7.69, 7.69, 7.74, 7.74, 7.74, 7.87, 7.87, 7.87, 7.52, 7.51, 7.51, 7.51, 7.13, 7.13, 7.13, 7.13, 7.58, 7.58, 7.58, 7.6, 7.6, 7.6, 8.05, 8.05, 8.05, 8.05, 8.05, 8.05, 8.05, 8.03, 8.03, 8.03, 8.03, 8.03, 8.03, 7.97, 7.97, 8.47, 8.47, 8.41, 7.97, 7.97, 7.87, 6.94, 6.47, 5.88, 5.81, 5.81, 5.08, 4.93, 4.0, 3.16, 2.84, 3.35, 3.63, 4.01, 4.01, 4.29, 4.95, 5.69, 6.11, 6.18, 6.44, 8.0, 8.95, 10.01, 12.14, 15.61, 20.19, 19.59, 14.13, 10.81, 10.81, 11.45, 11.8, 12.05, 12.97, 13.49, 12.86, 12.86, 12.86, 12.86, 7.08, 7.08, 7.31, 7.31, 7.2, 7.2, 7.2, 6.8, 6.8, 7.51, 7.51, 7.51, 7.51, 7.51, 7.69, 7.69, 7.74, 7.74, 7.74, 7.74, 7.74, 7.87, 7.87, 7.87, 7.51, 7.51, 7.51, 7.58, 7.13, 7.13, 7.13, 7.58, 7.58, 7.58, 7.58, 7.6, 7.6, 7.6, 8.05, 8.05, 8.05, 8.05, 8.05, 8.05, 8.05, 8.05, 8.03, 8.03, 8.03, 8.05, 7.58, 8.03, 8.47, 8.47, 8.47, 8.42, 8.42, 8.33, 8.3, 7.4, 6.94, 6.3, 6.3, 5.81, 5.6, 5.08, 4.55, 3.78, 3.16, 2.86, 3.2, 4.43, 4.43, 4.74, 5.82, 6.44, 6.79, 6.82, 7.03, 8.0, 8.55, 9.49, 11.37, 14.58, 18.32, 18.23, 14.51, 11.45, 10.78, 11.44, 12.08, 12.68, 13.02, 13.49, 13.25, 13.43, 13.43, 13.43, 7.08, 7.08, 7.31, 7.31, 7.31, 7.31, 7.31, 7.31, 7.31, 7.31, 7.51, 7.51, 7.51, 7.51, 8.0, 8.0, 8.0, 8.0, 7.74, 7.74, 7.74, 7.87, 7.87, 7.84, 7.51, 7.51, 7.58, 7.58, 7.58, 7.13, 7.58, 7.58, 7.58, 7.58, 7.6, 7.6, 7.6, 8.05, 8.05, 8.05, 8.05, 8.05, 8.05, 8.05, 8.05, 8.05, 8.05, 8.03, 8.03, 8.03, 7.58, 8.03, 8.47, 8.47, 8.42, 8.42, 8.33, 8.33, 8.3, 7.87, 7.4, 6.94, 6.47, 5.81, 5.81, 5.81, 5.08, 4.55, 3.48, 3.48, 3.48, 4.43, 4.43, 6.52, 5.82, 6.44, 7.03, 7.42, 7.42, 7.44, 8.55, 9.2, 10.55, 13.35, 16.63, 17.7, 14.86, 11.82, 10.78, 11.77, 12.42, 13.06, 13.65, 13.61, 13.54, 13.45, 13.45, 13.45, 6.95, 6.95, 7.31, 7.31, 7.31, 7.51, 7.51, 7.31, 7.31, 7.31, 7.51, 7.51, 7.51, 8.0, 8.0, 8.0, 8.0, 7.74, 7.74, 7.74, 7.74, 7.87, 7.87, 7.97, 7.52, 7.52, 7.58, 7.58, 7.58, 7.58, 7.58, 7.58, 7.58, 7.58, 7.6, 7.6, 8.05, 8.05, 8.05, 8.05, 8.05, 8.05, 8.05, 8.05, 8.05, 8.05, 8.05, 8.05, 8.49, 8.03, 8.03, 8.03, 8.47, 8.42, 8.42, 8.42, 8.33, 8.33, 8.33, 8.3, 7.87, 7.4, 6.94, 6.04, 5.81, 5.81, 5.47, 4.84, 4.65, 4.07, 4.07, 4.07, 4.65, 6.9, 5.82, 6.82, 6.79, 7.44, 7.44, 7.44, 7.41, 8.67, 10.04, 11.88, 15.09, 16.74, 15.09, 12.78, 11.76, 12.09, 12.78, 13.49, 13.68, 14.24, 13.93, 13.83, 13.83, 13.83, 6.95, 6.95, 7.31, 7.31, 7.31, 7.51, 7.51, 7.31, 7.31, 7.31, 7.51, 7.51, 7.51, 8.0, 8.0, 8.0, 8.0, 7.74, 7.74, 7.74, 7.74, 7.87, 7.87, 7.97, 7.52, 7.52, 7.58, 7.58, 7.58, 7.58, 7.58, 7.58, 7.58, 7.58, 7.6, 7.6, 8.05, 8.05, 8.05, 8.05, 8.05, 8.05, 8.05, 8.05, 8.05, 8.05, 8.05, 8.05, 8.49, 8.03, 8.03, 8.03, 8.47, 8.42, 8.42, 8.42, 8.33, 8.33, 8.33, 8.3, 7.87, 7.4, 6.94, 6.04, 5.81, 5.81, 5.47, 4.84, 4.65, 4.07, 4.07, 4.07, 4.65, 6.9, 5.82, 6.82, 7.07, 7.44, 7.44, 7.44, 7.41, 8.42, 9.3, 10.9, 13.51, 15.13, 15.09, 13.74, 12.72, 12.42, 12.78, 13.46, 14.5, 14.88, 14.11, 13.49, 13.49, 13.49]}, {"header": {"dx": 0.06612293990616946, "dy": 0.0552356325346848, "nx": 98, "ny": 59, "la1": 35.046912555036876, "la2": 31.78801023549047, "lo1": -121.43107172385933, "lo2": -114.95102361305473, "refTime": "2026041200", "parameterCategory": 1, "parameterNumber": 3}, "data": [-1.67, -1.14, -0.59, 0.0, 0.61, 0.55, 1.23, 1.23, 0.63, 0.55, 0.55, 0.55, 0.89, 0.83, 0.89, 0.89, 0.89, 1.96, 1.49, 1.4, 2.66, 2.49, 2.64, 3.6, 3.32, 4.07, 4.07, 4.07, 4.07, 4.07, 3.15, 0.83, 0.0, -1.73, -2.4, -3.4, -3.55, -2.8, -2.76, -1.83, -0.73, 0.0, 0.0, 1.3, 3.68, 5.89, 7.68, 8.68, 9.04, 9.67, 10.04, 10.01, 8.85, 8.76, 8.05, 7.25, 6.65, 5.8, 5.6, 5.06, 4.8, 4.83, 5.1, 5.59, 6.64, 7.59, 8.31, 8.22, 8.42, 8.3, 7.38, 6.21, 5.06, 4.17, 3.29, 2.41, 2.39, 2.82, 3.33, 2.6, 1.83, 0.98, 0.98, 0.98, 2.0, 3.84, 6.94, 8.9, 9.8, 10.7, 10.6, 10.02, 9.75, 9.75, 9.49, 9.9, 9.9, 9.49, -1.67, -1.05, -0.59, 0.0, 0.55, 0.57, 0.57, 0.57, 0.55, 0.0, 0.57, 0.88, 1.72, 0.83, 1.32, 1.32, 0.83, 1.25, 1.4, 1.72, 2.49, 2.32, 3.68, 3.8, 4.26, 4.96, 4.96, 5.21, 4.83, 4.96, 4.26, 3.33, 2.6, 0.89, -0.89, -3.47, -4.43, -4.19, -3.48, -2.84, -1.98, 0.0, 1.41, 4.01, 6.01, 7.35, 8.03, 8.68, 9.04, 9.67, 9.66, 8.93, 8.01, 7.28, 7.44, 7.13, 6.65, 5.8, 5.6, 5.06, 4.8, 4.34, 5.1, 6.32, 7.68, 7.97, 8.64, 8.6, 8.42, 7.9, 7.25, 6.43, 4.75, 3.29, 2.41, 2.59, 2.54, 2.82, 3.33, 2.6, 1.83, 0.98, 0.98, 0.98, 2.0, 3.84, 6.94, 8.9, 9.8, 10.7, 10.6, 10.02, 9.75, 9.75, 9.49, 9.9, 9.9, 9.49, -1.67, -1.16, -0.54, 0.0, 0.57, 0.57, 0.57, 0.0, 0.0, 0.0, 0.57, 1.23, 1.72, 1.73, 1.55, 0.84, 0.89, 0.83, 0.95, 1.32, 1.6, 2.49, 3.91, 6.01, 6.3, 5.59, 5.1, 4.83, 4.83, 5.24, 6.11, 6.82, 6.82, 6.28, 2.76, 0.0, -3.47, -4.38, -4.38, -2.97, 0.0, 2.68, 5.49, 6.79, 7.41, 7.76, 8.42, 8.68, 9.04, 9.0, 8.93, 8.12, 7.24, 6.56, 6.44, 6.65, 6.65, 5.8, 5.6, 4.87, 4.8, 4.96, 6.73, 7.76, 8.38, 9.04, 9.0, 8.93, 8.85, 8.18, 7.25, 6.31, 4.93, 3.29, 2.59, 2.54, 2.64, 2.64, 1.55, 0.98, 0.0, 0.0, 0.98, 2.0, 4.19, 6.51, 7.56, 8.94, 10.25, 10.16, 10.14, 9.54, 9.75, 9.75, 9.75, 9.49, 9.36, 9.36, -1.84, -1.16, -0.55, 0.0, 0.0, 0.0, 0.0, 0.0, 0.0, 0.0, 1.13, 1.58, 1.98, 1.63, 1.84, 0.84, 0.0, 0.0, 0.78, 1.72, 2.47, 3.45, 5.06, 5.37, 6.01, 6.95, 6.11, 5.37, 5.49, 5.82, 7.35, 8.56, 8.56, 8.63, 7.06, 5.09, 3.13, -2.68, -2.24, 0.0, 4.6, 7.35, 8.4, 8.05, 7.41, 7.41, 7.76, 8.03, 8.73, 8.22, 7.15, 6.45, 6.45, 6.45, 6.33, 6.56, 6.43, 5.8, 4.75, 4.68, 4.71, 6.64, 8.06, 9.05, 9.04, 9.4, 9.0, 9.21, 9.2, 8.73, 8.84, 7.69, 6.43, 5.0, 3.7, 2.82, 0.88, 0.0, 0.0, 0.0, 0.0, 1.13, 3.93, 5.51, 7.1, 8.45, 8.94, 9.39, 9.8, 10.14, 9.54, 9.54, 9.97, 9.75, 9.75, 9.36, 8.95, 8.95, -1.7, -1.07, -0.55, 0.0, 0.0, 0.0, 0.0, 0.0, 0.0, 0.59, 1.13, 1.8, 1.98, 1.96, 0.84, 0.84, 0.74, 0.89, 1.7, 3.22, 4.74, 6.13, 6.13, 6.52, 6.21, 6.63, 7.28, 7.28, 6.9, 6.7, 7.63, 7.85, 7.42, 6.7, 7.06, 6.52, 5.72, 3.47, 3.16, 5.2, 8.56, 9.24, 9.03, 8.42, 7.76, 7.41, 7.76, 7.68, 7.59, 7.48, 6.57, 6.57, 5.76, 6.57, 6.7, 6.56, 6.21, 5.6, 4.75, 4.13, 4.96, 7.41, 9.05, 9.67, 9.67, 9.67, 9.67, 10.04, 9.96, 10.18, 10.43, 9.49, 8.58, 6.43, 4.2, 2.29, 0.0, -0.98, -0.98, -0.99, 0.0, 3.93, 6.64, 7.6, 8.05, 8.49, 8.94, 9.35, 9.8, 9.54, 9.97, 10.16, 10.16, 9.97, 9.75, 8.95, 8.95, 8.55, -1.7, -1.19, -0.55, 0.0, 0.0, 0.0, 0.0, 0.0, 0.59, 1.13, 1.8, 2.48, 1.98, 1.01, 0.94, 0.89, 1.72, 2.99, 4.19, 5.82, 6.57, 6.21, 7.21, 7.06, 6.64, 6.64, 7.06, 7.63, 8.0, 8.0, 6.7, 6.45, 6.02, 5.94, 5.43, 5.82, 5.77, 4.68, 5.06, 7.12, 8.33, 9.63, 9.6, 9.3, 9.04, 8.73, 7.97, 7.27, 6.7, 6.7, 5.76, 6.15, 6.7, 6.7, 6.84, 6.33, 5.6, 4.93, 3.91, 4.4, 6.01, 9.03, 10.04, 10.28, 10.28, 10.66, 10.28, 9.67, 10.01, 10.24, 10.43, 9.77, 8.86, 7.23, 5.0, 1.72, -0.98, -2.0, 0.0, 0.0, 3.93, 7.1, 8.05, 8.05, 7.15, 7.15, 7.15, 8.01, 9.24, 9.7, 10.6, 11.06, 10.16, 9.54, 9.24, 8.95, 8.95, 9.24, -1.7, -1.19, -0.55, -0.63, 0.0, 0.0, 0.0, 0.59, 1.13, 1.6, 1.8, 2.48, 2.64, 1.63, 1.25, 1.98, 3.63, 4.89, 6.16, 6.28, 6.28, 6.16, 6.02, 6.45, 7.01, 6.58, 6.58, 6.64, 6.9, 6.6, 6.9, 6.02, 6.17, 5.73, 5.34, 5.82, 5.49, 5.59, 5.31, 6.57, 8.38, 8.6, 10.05, 9.86, 10.01, 8.93, 8.53, 7.78, 6.7, 7.27, 7.27, 6.83, 6.7, 6.7, 6.57, 5.51, 4.93, 3.11, 2.49, 4.26, 7.82, 10.0, 11.2, 10.87, 11.2, 11.26, 11.26, 10.28, 9.66, 9.56, 8.95, 8.18, 6.8, 5.51, 4.1, 1.67, -0.96, -1.83, 2.95, 7.85, 7.42, 8.94, 8.49, 7.15, 5.81, 4.92, 5.29, 6.94, 8.77, 10.14, 10.26, 10.18, 9.7, 9.06, 8.82, 8.55, 8.55, 8.82, -1.84, -1.73, -1.08, -0.55, 0.0, 0.0, 0.66, 1.13, 1.13, 1.13, 1.84, 2.51, 2.99, 3.91, 4.29, 4.11, 5.43, 6.45, 6.51, 6.94, 6.16, 5.2, 5.75, 6.26, 5.75, 5.64, 5.64, 5.6, 5.72, 5.72, 5.6, 6.58, 6.14, 6.07, 4.8, 4.19, 3.63, 3.72, 5.31, 6.63, 7.63, 7.63, 7.6, 7.56, 7.59, 8.53, 8.12, 8.42, 8.53, 7.95, 6.53, 6.83, 7.27, 6.7, 5.76, 4.01, 2.53, 0.86, 0.89, 5.49, 9.24, 11.37, 11.6, 11.6, 11.6, 11.64, 11.28, 10.01, 8.93, 8.01, 6.65, 5.73, 4.07, 3.3, 1.62, 0.73, -0.84, 0.0, 6.16, 9.35, 8.91, 8.49, 7.15, 5.81, 4.47, 3.47, 4.15, 6.02, 8.01, 9.8, 9.81, 9.81, 9.7, 9.54, 8.82, 8.4, 8.82, 8.82, -2.36, -1.7, -1.19, -0.55, 0.0, 0.57, 0.59, 0.59, 0.59, 1.16, 1.16, 1.88, 3.79, 4.11, 5.24, 5.58, 6.45, 6.51, 6.45, 6.45, 7.01, 7.01, 6.17, 6.26, 5.29, 5.2, 5.09, 5.51, 5.21, 4.84, 5.2, 5.64, 5.64, 5.2, 4.19, 2.95, 1.41, 3.79, 5.06, 6.63, 7.44, 7.44, 6.63, 6.32, 6.01, 5.49, 6.98, 9.42, 9.56, 8.85, 9.08, 7.27, 7.27, 6.7, 5.14, 3.39, 1.62, 0.84, 2.76, 7.12, 10.68, 11.87, 11.2, 12.15, 12.15, 11.83, 11.28, 9.56, 8.42, 6.7, 4.81, 4.38, 2.37, 1.4, 0.0, -0.82, -1.65, 3.63, 9.35, 9.81, 9.24, 8.19, 7.11, 5.36, 3.95, 3.22, 3.84, 6.02, 7.6, 8.94, 9.83, 9.39, 9.36, 9.54, 9.24, 8.55, 9.24, 9.49, -2.36, -1.7, -1.19, -0.55, 0.0, 0.0, 0.59, 0.59, 0.0, 0.61, 0.61, 1.2, 1.2, 1.88, 4.11, 4.89, 5.94, 6.17, 6.51, 6.07, 6.07, 6.51, 6.58, 6.58, 6.07, 5.64, 5.2, 5.64, 5.51, 4.46, 4.66, 4.66, 5.2, 5.2, 5.01, 3.49, 3.16, 4.0, 5.36, 6.32, 6.01, 6.01, 5.59, 4.83, 4.26, 5.1, 5.89, 7.27, 8.53, 8.85, 8.93, 9.34, 9.0, 8.31, 7.27, 6.95, 6.79, 6.21, 7.12, 9.54, 12.09, 12.8, 13.62, 12.7, 13.11, 12.27, 10.9, 9.48, 7.8, 5.86, 4.75, 4.31, 2.81, 0.73, -0.72, -2.9, -0.96, 6.94, 10.26, 10.18, 9.4, 8.24, 6.94, 5.16, 4.15, 3.48, 4.46, 5.86, 7.15, 8.46, 9.36, 9.39, 9.35, 8.63, 8.55, 8.95, 9.33, 9.54, -2.32, -2.36, -1.7, -0.55, 0.0, 0.0, 0.0, 0.0, 0.0, 0.0, 0.61, 0.65, 1.2, 1.2, 2.2, 3.48, 4.29, 3.2, 2.5, 1.88, 2.68, 3.48, 3.48, 4.29, 5.6, 5.64, 5.09, 5.64, 5.09, 3.79, 3.79, 4.0, 4.4, 3.79, 4.11, 4.74, 6.13, 6.13, 5.06, 5.1, 5.36, 5.1, 5.1, 4.71, 4.46, 4.95, 5.69, 6.73, 7.35, 8.38, 10.66, 11.28, 11.88, 12.56, 12.37, 14.09, 14.11, 12.3, 10.43, 11.61, 13.49, 13.49, 13.23, 13.64, 13.75, 13.43, 12.26, 11.2, 9.17, 7.36, 7.24, 5.89, 3.6, 0.75, -1.55, -4.11, 0.0, 8.94, 10.73, 10.45, 9.34, 8.3, 7.33, 5.46, 3.48, 3.07, 4.81, 6.4, 7.56, 8.01, 8.46, 8.94, 8.45, 8.14, 8.3, 9.24, 9.54, 9.24, -2.8, -2.36, -1.7, -1.19, 0.0, 0.0, 0.0, 0.0, 0.0, 0.0, 0.0, 0.53, 0.53, 0.65, 1.4, 1.61, 2.23, 2.23, 1.61, 1.16, 0.59, 0.59, 0.59, 1.52, 4.43, 4.84, 4.46, 2.91, 3.72, 3.48, 3.22, 4.11, 4.11, 3.79, 4.19, 4.43, 5.06, 5.37, 4.95, 5.1, 5.1, 4.26, 4.26, 4.46, 4.75, 5.82, 7.44, 8.54, 8.93, 10.05, 10.55, 11.75, 13.49, 15.75, 16.01, 16.52, 15.61, 12.86, 11.26, 12.3, 13.92, 13.91, 13.23, 12.7, 13.11, 13.43, 13.89, 13.88, 12.89, 11.9, 11.79, 8.85, 3.91, 0.0, -4.0, -4.0, 4.57, 9.83, 9.74, 9.4, 9.42, 8.38, 7.68, 6.01, 4.01, 3.35, 4.46, 6.54, 8.19, 8.49, 8.01, 7.6, 7.92, 8.14, 8.63, 9.06, 8.63, 8.3, -2.8, -2.32, -1.84, -1.19, -0.55, 0.0, 0.0, 0.0, 0.0, 0.0, 0.0, 0.0, 0.61, 0.53, 1.2, 1.16, 1.16, 1.84, 1.33, 1.13, 0.59, 0.0, 0.0, 0.0, 0.57, 1.23, 1.8, 1.61, 1.2, 1.0, 3.16, 4.11, 3.63, 4.11, 4.11, 4.11, 4.01, 5.06, 4.16, 4.03, 4.26, 4.03, 4.16, 4.29, 5.36, 7.21, 8.17, 8.6, 8.63, 8.63, 8.14, 8.14, 9.72, 11.15, 12.47, 11.4, 10.62, 9.17, 8.65, 10.95, 12.58, 12.45, 11.75, 11.5, 11.5, 10.63, 12.25, 15.35, 15.35, 15.43, 13.89, 10.01, 3.16, -3.13, -4.38, 0.0, 7.85, 9.7, 9.33, 8.8, 8.3, 7.97, 7.27, 6.42, 5.89, 5.37, 6.21, 6.54, 8.4, 9.26, 8.49, 8.05, 8.36, 8.8, 9.06, 8.56, 7.76, 7.03, -3.0, -2.8, -2.36, -1.7, -0.55, -0.57, 0.0, 0.0, 0.0, 0.0, 0.0, 0.0, 0.61, 0.61, 0.61, 1.16, 1.16, 1.13, 1.13, 0.57, 0.0, 0.0, 0.0, 0.0, 0.0, 0.0, 0.0, 0.0, 0.0, 0.0, 1.24, 3.93, 4.74, 4.11, 4.11, 4.54, 4.81, 5.49, 4.58, 3.55, 3.55, 3.72, 4.74, 6.52, 7.2, 8.06, 7.21, 8.06, 7.63, 7.2, 6.52, 6.23, 6.61, 6.61, 5.81, 3.84, 2.32, 4.44, 7.81, 9.75, 10.68, 11.62, 11.2, 10.94, 8.3, 7.44, 9.83, 11.3, 12.79, 10.9, 11.2, 8.64, 2.23, -3.13, 0.0, 5.82, 9.24, 9.03, 8.67, 8.03, 7.68, 6.7, 6.05, 5.28, 6.58, 7.35, 7.44, 7.42, 8.91, 9.58, 9.28, 9.36, 8.82, 9.24, 8.19, 7.89, 7.35, 7.03, -3.45, -2.8, -2.32, -1.7, -1.19, -0.55, -0.57, 0.0, 0.0, 0.0, 0.0, 0.0, 0.0, 0.51, 1.16, 1.16, 1.13, 1.27, 1.11, 0.57, 0.63, 0.55, 0.0, 0.0, -0.57, -0.59, -0.61, -0.65, -0.57, -0.6, 1.26, 3.2, 5.36, 5.36, 5.36, 6.52, 7.2, 5.49, 5.03, 3.47, 3.91, 5.37, 6.13, 6.9, 7.2, 8.06, 8.06, 7.63, 7.21, 6.13, 5.36, 5.01, 4.8, 4.09, 2.73, 1.41, 1.19, 3.9, 7.06, 10.0, 8.4, 8.54, 8.37, 8.73, 6.87, 7.81, 9.6, 9.2, 6.95, 6.24, 7.48, 6.42, 3.72, 2.0, 5.58, 7.41, 8.38, 8.31, 7.9, 7.48, 6.7, 5.14, 4.4, 3.7, 5.3, 7.35, 8.42, 9.03, 9.6, 10.25, 10.45, 9.58, 9.72, 9.11, 8.4, 7.42, 8.0, 8.0, -3.21, -3.0, -2.32, -1.67, -1.16, -1.08, -0.63, -0.57, -0.57, 0.0, 0.0, 0.0, 0.0, 0.59, 1.13, 1.6, 1.8, 1.11, 1.23, 1.08, 0.55, 0.61, 0.0, 0.0, -0.63, -1.27, -1.61, -1.9, -1.86, 0.0, 2.4, 4.11, 4.0, 5.36, 6.64, 6.28, 6.21, 5.15, 5.06, 4.74, 4.54, 5.82, 6.9, 7.6, 7.2, 7.63, 8.06, 7.2, 6.52, 5.06, 5.06, 4.74, 3.76, 3.49, 1.41, 1.27, 2.23, 4.65, 6.63, 7.27, 6.64, 6.95, 6.32, 5.72, 4.74, 7.21, 7.89, 7.81, 6.3, 5.98, 6.53, 5.52, 4.07, 5.06, 6.7, 7.64, 7.9, 7.38, 7.12, 6.33, 5.0, 3.95, 3.49, 3.6, 4.95, 6.79, 8.42, 10.0, 10.85, 10.95, 10.68, 9.58, 9.4, 8.67, 8.55, 8.55, 8.67, 8.67, -3.42, -3.0, -2.8, -2.16, -1.7, -1.19, -0.55, -0.63, -0.57, 0.0, 0.0, 0.0, 0.0, 0.59, 1.13, 1.8, 1.58, 1.76, 1.76, 1.73, 1.16, 0.0, 0.0, -0.54, -1.19, -1.8, -2.79, -2.91, -2.17, 0.6, 3.6, 4.8, 4.4, 6.0, 5.2, 5.75, 6.16, 6.4, 5.36, 5.36, 6.64, 6.16, 7.2, 6.21, 7.6, 7.6, 7.6, 6.63, 6.28, 4.75, 3.91, 3.91, 4.75, 3.68, 3.45, 3.45, 3.45, 3.68, 5.31, 6.01, 6.3, 6.01, 4.71, 4.75, 4.74, 5.09, 6.23, 5.93, 6.95, 8.49, 7.24, 5.4, 4.24, 4.71, 6.4, 8.06, 8.74, 7.93, 6.4, 5.6, 4.68, 4.07, 3.45, 4.56, 6.45, 6.79, 7.81, 10.85, 11.37, 11.79, 10.6, 9.83, 9.83, 9.6, 8.95, 8.67, 8.4, 8.4, -3.42, -3.21, -3.0, -2.32, -1.67, -1.16, -1.19, -0.63, -0.57, 0.0, 0.0, 0.0, 0.0, 1.13, 1.13, 1.8, 1.8, 2.48, 2.2, 1.84, 0.58, 0.0, -0.61, -0.61, -0.55, -1.84, -2.5, -2.4, -0.8, 2.5, 4.8, 4.55, 4.27, 3.88, 4.11, 4.98, 4.82, 4.84, 5.6, 5.36, 5.72, 6.13, 5.72, 6.52, 6.28, 7.07, 6.63, 6.01, 5.31, 4.71, 4.14, 4.75, 4.75, 4.75, 4.75, 4.75, 4.75, 5.03, 5.31, 6.01, 6.01, 4.66, 4.96, 3.91, 4.74, 4.6, 5.09, 5.75, 7.07, 7.27, 5.8, 4.91, 4.75, 5.46, 6.42, 7.4, 7.46, 7.15, 6.54, 5.67, 5.0, 4.83, 5.1, 6.68, 7.41, 8.43, 9.9, 10.85, 11.37, 12.04, 11.62, 10.43, 9.68, 9.86, 9.03, 8.95, 8.24, 8.24, -3.42, -3.42, -2.77, -2.32, -2.16, -1.7, -1.19, -1.08, -0.63, -0.57, 0.0, 0.0, 0.59, 1.13, 1.33, 1.83, 1.8, 2.48, 2.61, 2.36, 0.54, 0.0, 0.61, 1.83, 1.83, 1.41, 0.0, 1.13, 2.95, 4.07, 4.65, 4.07, 4.0, 3.72, 3.35, 2.68, 2.4, 1.9, 3.16, 4.43, 4.54, 5.24, 5.06, 5.37, 6.63, 6.01, 5.31, 5.31, 4.71, 4.71, 4.71, 5.31, 5.03, 4.75, 5.69, 6.01, 6.01, 6.87, 7.56, 6.3, 5.21, 4.96, 4.96, 3.33, 4.01, 5.21, 5.75, 4.84, 4.43, 4.71, 4.48, 5.56, 5.6, 4.85, 3.96, 3.24, 2.39, 3.24, 4.1, 4.0, 4.83, 6.18, 6.64, 6.64, 7.35, 8.82, 9.9, 10.27, 11.37, 11.3, 11.2, 11.09, 10.43, 9.74, 9.6, 8.63, 8.05, 8.05, -3.84, -3.42, -2.77, -3.0, -2.32, -1.67, -1.16, -1.19, -0.55, -0.55, 0.0, 0.0, 0.51, 0.59, 1.13, 1.6, 1.84, 2.23, 2.99, 2.8, 1.84, 2.23, 2.84, 4.43, 4.43, 3.91, 3.91, 3.22, 3.84, 3.84, 3.49, 3.49, 3.48, 3.43, 3.14, 2.21, 1.24, 1.24, 1.88, 2.51, 3.48, 3.49, 3.22, 3.49, 3.76, 4.14, 4.14, 3.8, 3.8, 3.8, 5.31, 6.01, 6.01, 6.63, 5.77, 6.11, 7.21, 6.7, 5.89, 6.3, 4.96, 3.8, 3.6, 3.91, 4.81, 6.21, 6.21, 5.49, 3.9, 3.45, 4.01, 4.85, 4.85, 3.18, 0.82, -0.79, -2.44, -1.63, 1.65, 4.13, 5.06, 6.04, 6.04, 5.76, 6.64, 7.92, 9.2, 9.45, 9.86, 9.86, 10.55, 10.63, 9.65, 9.27, 8.93, 8.42, 7.41, 7.41, -4.08, -3.42, -2.96, -2.77, -2.32, -1.67, -1.7, -1.19, -1.08, -0.55, -0.55, 0.0, 0.0, 0.59, 1.13, 1.6, 1.6, 1.6, 1.8, 2.6, 2.8, 3.49, 3.83, 3.49, 2.84, 3.08, 2.82, 3.47, 3.22, 3.04, 2.82, 2.84, 2.86, 2.86, 2.23, 1.84, 1.2, 1.61, 2.21, 2.84, 3.43, 3.48, 3.49, 3.49, 3.49, 3.91, 3.91, 3.6, 3.8, 3.6, 5.03, 6.63, 6.98, 7.44, 7.44, 6.11, 6.73, 6.68, 6.01, 4.96, 4.71, 3.8, 4.14, 5.37, 5.58, 6.21, 5.82, 4.95, 5.3, 4.96, 5.63, 6.28, 5.56, 3.28, 0.0, -3.11, -3.78, -1.68, 0.85, 4.07, 5.76, 6.57, 5.76, 5.04, 6.95, 8.67, 9.6, 9.84, 9.52, 9.05, 9.6, 10.04, 9.67, 8.93, 7.96, 7.31, 6.68, 6.68, -4.08, -3.42, -3.42, -2.77, -2.29, -2.32, -1.67, -1.16, -1.19, -1.19, -0.55, 0.0, 0.0, 0.57, 1.27, 1.27, 1.8, 1.27, 1.11, 1.23, 1.88, 2.82, 3.04, 2.82, 2.36, 2.18, 2.18, 2.36, 2.16, 2.16, 2.16, 2.36, 2.4, 2.2, 1.76, 1.8, 1.84, 2.23, 2.84, 3.43, 3.78, 3.48, 3.49, 3.49, 3.22, 3.08, 3.6, 2.54, 3.6, 4.14, 6.28, 6.63, 7.44, 7.44, 6.98, 7.44, 7.15, 7.41, 6.01, 5.31, 4.16, 3.55, 4.16, 4.74, 5.82, 5.82, 5.77, 5.77, 6.44, 7.21, 8.49, 9.5, 9.66, 7.11, 0.0, -1.0, 0.0, 0.82, 2.4, 4.5, 5.63, 5.86, 5.63, 6.7, 9.04, 10.63, 10.63, 11.02, 10.15, 9.52, 9.14, 9.52, 8.94, 7.94, 7.27, 6.64, 6.32, 6.32, -4.08, -4.08, -3.64, -2.96, -2.77, -2.14, -1.67, -1.67, -1.16, -1.07, -0.61, 0.0, 0.0, 0.57, 1.11, 1.11, 1.11, 1.11, 1.23, 1.08, 1.19, 1.7, 2.18, 2.18, 2.18, 2.18, 1.7, 1.7, 1.84, 1.67, 1.67, 1.67, 1.84, 1.7, 1.7, 1.73, 1.76, 2.86, 4.0, 4.37, 4.07, 4.07, 3.49, 3.78, 3.49, 3.49, 3.91, 2.82, 3.91, 5.03, 6.63, 6.63, 6.63, 6.01, 6.98, 7.44, 6.79, 7.41, 7.56, 4.58, 4.29, 4.29, 5.37, 5.77, 6.18, 6.11, 6.11, 5.77, 6.18, 6.8, 7.44, 7.56, 6.35, 4.43, 3.91, 4.11, 4.65, 4.37, 3.7, 2.97, 3.78, 4.13, 5.14, 8.31, 11.26, 12.15, 11.83, 11.26, 11.28, 10.28, 9.19, 8.59, 8.27, 7.22, 6.88, 6.58, 6.64, 6.64, -3.83, -3.83, -4.08, -3.42, -2.77, -2.29, -1.8, -1.67, -1.05, -1.16, -0.54, 0.0, 0.0, 0.0, 0.57, 1.11, 1.23, 1.08, 1.08, 1.08, 1.73, 1.73, 1.73, 2.4, 2.4, 2.18, 2.18, 1.7, 1.84, 1.67, 1.67, 1.67, 1.67, 1.14, 1.14, 1.84, 2.4, 2.86, 4.07, 4.55, 4.07, 4.11, 3.83, 3.49, 3.49, 3.49, 4.14, 4.14, 4.14, 5.31, 5.31, 5.31, 5.31, 6.28, 6.63, 7.07, 6.18, 6.44, 7.21, 6.98, 5.49, 5.15, 5.77, 6.79, 6.11, 6.79, 6.79, 7.56, 6.82, 6.21, 5.15, 2.28, 3.18, 4.82, 6.31, 6.4, 5.36, 3.6, 2.28, 1.47, 0.0, 0.0, 3.06, 8.58, 11.2, 11.26, 11.26, 10.9, 10.63, 10.58, 8.93, 7.9, 7.22, 6.51, 5.78, 6.58, 6.95, 6.95, -4.05, -4.05, -3.83, -3.64, -3.42, -2.96, -2.14, -1.8, -1.67, -1.14, -0.59, -0.59, 0.0, 0.0, 0.55, 0.55, 0.55, 0.55, 1.19, 1.19, 1.73, 1.73, 1.73, 1.88, 2.4, 2.18, 2.18, 2.36, 1.84, 1.67, 1.67, 1.8, 1.23, 1.23, 1.12, 1.65, 1.67, 2.84, 3.79, 4.65, 4.65, 4.11, 4.12, 4.12, 3.76, 3.47, 2.32, 2.26, 2.4, 2.4, 2.44, 3.8, 3.91, 5.37, 6.28, 6.63, 6.63, 5.15, 6.9, 7.44, 7.81, 6.18, 5.77, 6.45, 6.79, 7.44, 7.81, 8.06, 8.43, 5.06, 2.67, 0.79, 2.34, 5.56, 7.11, 6.31, 5.1, 2.39, 0.0, -0.89, -2.4, -0.79, 3.69, 8.93, 10.63, 10.28, 10.29, 10.66, 10.24, 10.15, 9.31, 7.36, 6.44, 5.64, 5.86, 6.58, 6.95, 6.95, -4.46, -4.46, -4.05, -3.4, -3.42, -2.96, -2.29, -1.65, -1.8, -1.14, -1.14, -0.53, 0.0, 0.0, 0.0, 0.0, 0.0, 0.61, 1.19, 1.73, 1.73, 1.73, 1.88, 1.88, 1.88, 1.88, 1.7, 1.84, 1.67, 1.67, 1.8, 1.8, 1.23, 1.12, 1.12, 1.2, 1.76, 2.16, 3.49, 4.11, 4.37, 4.43, 4.12, 3.84, 4.12, 3.45, 2.29, 1.73, 1.73, 1.18, 1.2, 1.14, 2.66, 5.37, 6.28, 6.63, 6.28, 5.37, 6.52, 6.9, 6.98, 6.64, 6.11, 6.11, 6.79, 7.81, 8.43, 9.03, 8.06, 6.32, 4.12, 2.42, 3.14, 5.46, 7.34, 8.0, 6.6, 3.53, 0.0, -1.7, -2.76, 0.76, 6.35, 9.52, 10.15, 10.66, 10.63, 10.63, 9.89, 8.79, 8.84, 7.67, 6.36, 5.78, 6.14, 6.83, 6.88, 6.88, -4.46, -4.46, -4.05, -3.83, -3.4, -2.96, -2.96, -2.29, -1.65, -1.8, -1.14, -1.14, -0.53, 0.0, 0.0, 0.0, 0.0, 0.54, 1.19, 1.19, 1.73, 1.88, 1.7, 1.88, 1.73, 1.73, 1.88, 1.7, 1.84, 1.67, 1.8, 1.8, 1.65, 1.65, 1.12, 1.2, 1.1, 1.2, 2.32, 3.47, 4.12, 4.43, 4.42, 4.12, 3.45, 2.96, 2.26, 1.73, 1.18, 1.2, 0.58, 1.19, 2.44, 3.49, 5.15, 5.06, 5.03, 5.37, 5.6, 5.82, 6.28, 5.69, 6.32, 6.44, 8.54, 7.44, 8.05, 7.44, 7.06, 5.76, 4.07, 3.29, 2.45, 4.04, 6.35, 7.91, 7.15, 4.46, 1.67, 0.0, 0.88, 4.56, 7.64, 8.58, 9.56, 10.79, 11.25, 10.51, 9.8, 7.9, 8.01, 8.66, 7.9, 7.36, 6.79, 6.44, 6.44, 6.44, -4.46, -4.46, -4.46, -4.05, -3.4, -3.4, -2.96, -2.96, -2.29, -1.65, -1.65, -1.14, -0.58, -0.58, 0.0, 0.0, 0.0, 0.59, 1.07, 1.19, 1.19, 1.7, 1.7, 1.7, 1.73, 1.73, 1.73, 1.55, 1.7, 1.7, 1.67, 1.8, 1.12, 1.12, 1.12, 0.61, 0.61, 1.12, 2.32, 3.47, 4.12, 4.12, 4.12, 4.12, 3.45, 2.96, 2.26, 2.26, 1.73, 1.12, 1.16, 2.44, 3.49, 3.79, 3.48, 4.43, 5.06, 5.37, 5.82, 5.58, 5.15, 4.58, 5.37, 6.44, 6.79, 8.37, 6.73, 5.69, 4.42, 4.12, 3.25, 3.07, 2.37, 2.37, 3.34, 3.2, 3.24, 3.98, 3.96, 3.11, 3.36, 4.88, 6.63, 7.9, 8.93, 9.84, 9.83, 9.7, 8.56, 8.18, 7.9, 8.05, 8.84, 8.01, 7.8, 7.09, 6.36, 6.36, -5.1, -5.1, -4.46, -4.05, -3.83, -3.4, -3.2, -2.96, -2.44, -2.29, -1.65, -1.65, -1.23, -1.14, -0.53, 0.0, 0.0, 0.53, 0.59, 1.16, 1.16, 1.16, 1.16, 1.16, 1.07, 1.88, 1.88, 1.7, 1.7, 1.16, 1.14, 1.14, 0.57, 0.57, 0.57, 0.57, 0.57, 1.23, 2.32, 3.04, 3.47, 3.47, 3.76, 4.42, 4.26, 3.42, 2.26, 1.76, 2.16, 1.84, 2.84, 3.83, 4.12, 3.79, 3.48, 3.16, 4.74, 5.72, 5.58, 4.81, 4.43, 4.01, 4.29, 6.18, 6.79, 7.41, 7.35, 5.1, 2.64, 1.73, 2.57, 3.16, 3.96, 2.45, 0.0, -0.82, 0.0, 2.39, 4.85, 3.95, 3.23, 4.08, 5.92, 7.61, 8.79, 8.79, 8.01, 7.25, 7.25, 7.25, 7.9, 7.79, 8.58, 8.66, 7.93, 6.94, 6.53, 6.53, -5.1, -5.1, -4.71, -4.46, -4.05, -3.4, -3.4, -2.75, -2.75, -2.26, -2.44, -1.76, -1.65, -1.12, -1.12, -0.57, 0.0, 0.0, 0.53, 1.16, 1.16, 1.05, 1.14, 1.84, 1.7, 1.7, 1.7, 1.7, 1.7, 1.14, 0.58, 0.58, 0.0, 0.0, 0.57, 1.14, 1.67, 2.32, 2.8, 2.8, 3.04, 3.04, 3.47, 3.22, 3.47, 3.45, 3.27, 2.8, 3.72, 3.85, 4.1, 3.45, 4.12, 3.49, 3.48, 2.86, 2.86, 2.86, 4.11, 4.11, 3.63, 3.47, 4.29, 5.06, 5.69, 5.69, 6.32, 6.58, 3.55, 1.84, 2.47, 4.83, 6.52, 5.72, 0.82, -1.63, -1.62, 0.0, 3.3, 4.85, 4.76, 4.72, 6.29, 8.23, 8.22, 7.85, 6.36, 5.02, 5.02, 5.89, 7.28, 8.05, 8.1, 8.72, 8.1, 7.11, 6.44, 6.44, -5.1, -5.1, -5.1, -4.46, -4.05, -4.05, -3.4, -3.4, -2.92, -2.75, -2.26, -2.26, -1.76, -1.2, -1.12, -0.57, 0.0, 0.0, 0.58, 0.58, 0.58, 1.14, 1.14, 1.67, 1.84, 1.84, 1.84, 1.84, 1.67, 1.14, 0.58, 0.58, 0.58, 1.14, 1.67, 2.32, 2.8, 2.8, 2.8, 2.32, 2.32, 2.32, 3.04, 2.82, 3.04, 2.67, 2.69, 3.42, 3.64, 3.64, 2.96, 2.32, 2.18, 3.12, 2.86, 2.86, 2.86, 2.48, 2.48, 3.35, 3.63, 3.47, 4.16, 4.16, 4.16, 4.29, 4.16, 4.71, 5.03, 3.76, 3.63, 4.95, 5.51, 7.34, 5.63, 0.0, -0.8, 0.0, 2.53, 5.51, 6.6, 7.08, 7.8, 7.76, 7.06, 5.73, 4.62, 3.73, 4.32, 5.77, 7.02, 7.19, 7.34, 7.25, 7.25, 7.03, 6.36, 6.36, -5.1, -5.1, -5.1, -4.46, -4.46, -4.05, -4.05, -3.4, -3.4, -2.92, -2.92, -2.26, -2.26, -1.63, -1.2, -0.61, 0.0, 0.0, 0.0, 0.57, 0.57, 1.12, 1.8, 1.8, 1.67, 1.67, 1.67, 1.67, 1.73, 1.14, 1.14, 1.67, 1.67, 2.32, 2.8, 3.0, 3.0, 3.0, 2.49, 2.32, 1.65, 2.32, 2.32, 2.8, 2.32, 1.76, 2.26, 2.89, 2.89, 2.23, 1.73, 1.8, 1.7, 2.4, 3.08, 2.84, 2.86, 2.44, 2.22, 2.22, 3.22, 3.72, 3.55, 3.2, 3.55, 2.64, 2.6, 3.45, 5.03, 3.91, 3.33, 3.2, 2.46, 3.58, 5.54, 3.23, 1.55, 2.47, 4.01, 4.95, 6.43, 7.3, 7.2, 5.88, 5.21, 4.2, 3.96, 4.72, 5.51, 6.36, 6.29, 6.44, 6.57, 6.2, 6.4, 6.48, 5.8, 5.8, -5.36, -5.36, -5.1, -4.71, -4.46, -4.46, -4.05, -3.6, -3.4, -2.92, -2.92, -2.4, -2.26, -1.73, -1.1, -0.56, -0.56, 0.0, 0.0, 0.57, 0.57, 1.12, 1.65, 1.8, 1.8, 1.67, 1.67, 1.67, 1.67, 1.84, 2.36, 2.16, 2.8, 2.8, 2.8, 3.0, 2.77, 2.29, 2.29, 1.76, 1.76, 1.76, 2.14, 2.32, 2.32, 2.29, 1.73, 1.71, 1.71, 1.61, 1.1, 1.8, 2.36, 2.82, 3.47, 3.47, 3.47, 2.84, 2.86, 2.44, 2.84, 3.33, 4.14, 3.33, 3.55, 3.33, 3.47, 2.6, 2.66, 2.54, 3.27, 1.65, 0.0, -0.77, 1.63, 4.05, 4.75, 4.65, 4.31, 4.24, 5.01, 5.01, 4.95, 4.44, 3.56, 3.6, 4.68, 5.86, 6.56, 6.45, 6.33, 5.68, 5.02, 5.11, 5.02, 5.55, 5.02, 5.02, -5.09, -5.09, -4.45, -4.71, -4.46, -4.46, -4.05, -4.05, -3.6, -3.37, -2.73, -2.73, -2.23, -2.23, -1.73, -1.1, -0.56, 0.0, 0.0, 0.56, 0.61, 1.2, 1.65, 1.8, 1.8, 1.8, 1.8, 1.8, 1.8, 1.8, 2.32, 2.32, 2.32, 2.32, 2.32, 2.32, 2.32, 1.65, 1.65, 1.76, 1.2, 1.2, 1.76, 2.29, 2.29, 1.76, 1.73, 1.16, 1.16, 1.18, 1.2, 1.8, 3.04, 3.47, 4.12, 4.12, 3.72, 3.47, 2.84, 2.84, 3.91, 4.56, 5.03, 5.03, 4.58, 4.16, 4.16, 3.33, 2.66, 2.4, 2.54, 1.2, 0.0, -0.79, 0.8, 4.88, 6.57, 5.56, 3.64, 2.19, 2.15, 2.89, 3.64, 3.59, 3.53, 4.72, 5.83, 6.53, 5.89, 5.99, 5.2, 4.75, 4.24, 3.66, 3.59, 5.02, 4.17, 4.17, -4.69, -4.69, -4.69, -4.45, -4.71, -4.46, -4.46, -4.05, -4.05, -3.37, -3.37, -2.89, -2.89, -2.23, -2.23, -1.18, -0.59, 0.0, 0.0, 0.56, 0.56, 1.1, 1.2, 1.12, 1.12, 1.23, 1.23, 1.23, 1.23, 1.65, 1.8, 1.8, 1.67, 1.67, 1.67, 1.67, 1.8, 1.8, 1.65, 1.12, 1.1, 1.1, 1.1, 1.76, 1.76, 1.63, 1.18, 1.09, 1.09, 1.18, 1.76, 2.32, 3.22, 4.12, 4.12, 3.85, 3.45, 3.47, 3.47, 3.49, 3.78, 5.03, 5.03, 5.03, 5.03, 5.03, 4.16, 3.2, 3.2, 2.4, 2.31, 2.33, 1.2, 1.63, 2.43, 4.91, 7.28, 6.37, 4.85, 2.35, 1.43, 2.18, 2.87, 3.53, 4.39, 5.17, 5.83, 6.1, 5.6, 5.4, 4.48, 3.82, 3.23, 2.87, 2.13, 2.06, 3.6, 3.6, -4.69, -4.69, -4.69, -4.69, -4.45, -4.03, -4.05, -4.05, -4.05, -4.05, -3.37, -3.37, -2.89, -2.37, -2.23, -1.71, -0.59, 0.0, 0.0, 0.56, 0.56, 1.1, 1.1, 1.2, 1.12, 1.12, 1.12, 1.23, 1.12, 1.12, 1.12, 1.23, 1.67, 1.67, 1.14, 1.14, 1.14, 1.23, 1.12, 1.12, 0.56, 0.59, 1.18, 1.1, 1.63, 1.2, 1.1, 1.18, 1.18, 1.18, 1.76, 3.0, 3.45, 3.85, 3.85, 3.45, 3.45, 3.45, 3.47, 3.49, 4.12, 4.12, 5.03, 4.16, 4.03, 3.8, 3.2, 2.51, 2.67, 2.4, 2.33, 3.45, 3.45, 4.06, 4.04, 4.71, 7.15, 8.07, 6.52, 4.3, 3.59, 3.73, 3.53, 3.53, 4.17, 5.02, 5.48, 5.29, 4.65, 4.65, 3.96, 2.93, 2.45, 1.55, 1.46, 1.41, 2.82, 2.82, -4.44, -4.44, -4.44, -4.44, -4.69, -4.03, -4.03, -4.05, -4.05, -4.05, -3.6, -3.37, -2.89, -2.23, -1.71, -1.71, -0.55, 0.0, 0.0, 0.0, 0.59, 0.56, 1.1, 1.1, 1.12, 1.12, 1.12, 1.12, 1.12, 1.12, 1.12, 1.23, 1.14, 1.14, 1.14, 1.14, 1.14, 1.14, 1.12, 1.12, 0.56, 0.55, 0.55, 1.67, 1.76, 1.76, 1.76, 1.1, 1.18, 1.63, 2.77, 3.45, 3.85, 3.45, 3.45, 3.45, 3.0, 3.45, 3.49, 3.49, 4.12, 4.12, 4.14, 3.55, 3.4, 3.52, 2.51, 3.2, 3.2, 3.4, 3.91, 4.96, 4.6, 4.65, 4.13, 3.91, 4.66, 5.76, 5.69, 5.96, 6.42, 5.72, 4.95, 4.24, 4.31, 4.17, 4.39, 4.65, 4.65, 3.73, 3.14, 2.31, 1.55, 0.78, 0.8, 1.42, 1.39, 1.42, -4.44, -4.44, -4.44, -4.44, -4.0, -4.0, -4.03, -4.03, -3.81, -3.6, -3.6, -2.89, -2.73, -2.23, -1.71, -1.16, -1.09, 0.0, 0.0, 0.0, 0.0, 0.56, 0.56, 0.56, 0.56, 0.61, 0.57, 0.57, 0.57, 0.57, 0.57, 1.12, 1.23, 1.14, 1.14, 1.14, 1.14, 0.58, 0.57, 0.57, 0.56, 0.55, 0.55, 1.67, 1.73, 2.26, 1.63, 1.76, 2.29, 2.77, 3.42, 3.68, 3.45, 3.45, 3.0, 2.77, 3.0, 2.8, 3.49, 3.49, 3.49, 4.12, 5.31, 3.55, 3.4, 3.8, 3.6, 4.03, 4.03, 4.03, 5.69, 6.01, 4.6, 3.07, 4.0, 3.25, 2.47, 2.37, 3.57, 5.57, 6.7, 7.2, 6.52, 5.17, 4.38, 4.31, 4.17, 3.73, 3.73, 3.04, 2.31, 2.31, 1.5, 1.6, 1.64, 1.45, 2.21, 1.39, -4.44, -4.44, -4.44, -4.44, -4.44, -4.0, -4.0, -4.03, -4.03, -3.37, -3.37, -2.89, -2.73, -2.23, -1.71, -1.16, -1.09, -0.55, 0.0, 0.0, 0.0, 0.0, 0.56, 0.56, 0.56, 0.56, 0.61, 0.57, 0.57, 0.57, 0.57, 0.57, 0.57, 1.23, 1.14, 0.58, 0.58, 0.57, 0.57, 0.57, 0.0, 0.0, 0.0, 0.55, 1.75, 1.71, 2.26, 2.29, 3.0, 3.68, 3.42, 3.42, 2.77, 2.77, 2.77, 2.77, 3.0, 3.04, 2.82, 3.49, 3.49, 4.12, 3.76, 5.31, 4.14, 4.14, 4.16, 4.03, 4.83, 6.01, 6.01, 5.1, 3.3, 4.6, 5.6, 6.52, 4.76, 3.17, 3.91, 5.02, 6.4, 6.6, 6.6, 5.81, 4.37, 3.59, 3.53, 3.04, 3.11, 3.11, 2.31, 2.31, 2.22, 1.6, 1.58, 2.39, 2.76, 2.21, -4.44, -4.44, -4.44, -4.44, -4.44, -4.0, -4.0, -4.0, -4.03, -3.56, -3.37, -2.89, -2.73, -2.23, -1.71, -1.09, -1.09, -0.55, 0.0, 0.0, 0.0, 0.0, 0.0, 0.0, 0.56, 0.56, 0.56, 0.56, 0.57, 0.57, 0.57, 0.57, 0.57, 0.57, 0.57, 0.57, 0.57, 0.57, 0.57, 0.0, 0.0, 0.0, 0.0, 0.0, 0.58, 1.6, 2.26, 2.77, 3.0, 3.0, 2.77, 2.77, 2.29, 2.29, 2.29, 2.29, 3.0, 2.82, 2.82, 2.82, 3.49, 3.83, 5.03, 5.03, 5.31, 6.01, 4.42, 5.31, 5.37, 6.39, 5.89, 5.1, 3.35, 4.66, 6.71, 8.68, 9.42, 8.12, 7.32, 7.23, 7.16, 7.11, 6.35, 5.08, 4.3, 2.81, 2.93, 2.99, 2.28, 2.37, 2.22, 2.31, 1.5, 1.64, 2.31, 3.21, 4.92, 4.92, -4.66, -4.66, -4.44, -4.44, -4.44, -4.44, -4.0, -4.0, -3.8, -3.56, -3.37, -2.89, -2.23, -2.23, -1.61, -1.09, -1.09, -0.55, -0.55, 0.0, 0.0, 0.0, 0.0, 0.0, 0.0, 0.56, 0.56, 0.56, 0.56, 0.61, 0.57, 0.57, 0.57, 0.57, 0.57, 0.57, 0.57, 0.57, 0.0, 0.0, 0.0, 0.0, 0.0, 0.0, 0.0, 0.57, 1.71, 2.26, 2.29, 2.29, 2.29, 2.29, 2.29, 2.29, 2.29, 2.29, 2.32, 2.36, 2.82, 2.82, 3.49, 3.76, 4.12, 5.03, 5.03, 6.01, 6.32, 6.01, 5.77, 6.01, 5.59, 4.83, 4.71, 5.59, 6.98, 8.23, 9.8, 11.16, 11.28, 10.47, 9.26, 8.56, 7.22, 5.8, 4.3, 2.45, 2.41, 2.41, 2.34, 2.28, 1.6, 1.5, 0.74, 1.56, 5.64, 5.76, 5.76, 5.76, -4.66, -4.66, -4.44, -4.44, -4.44, -4.44, -4.44, -4.0, -4.0, -3.56, -3.37, -2.89, -2.23, -1.71, -1.73, -1.09, -1.09, -1.09, -0.55, 0.0, 0.0, 0.0, 0.0, 0.0, 0.0, 0.0, 0.59, 0.56, 0.56, 0.56, 0.61, 0.57, 0.57, 0.57, 0.57, 0.57, 0.0, 0.0, 0.0, 0.0, 0.0, 0.0, 0.0, 0.0, 0.0, 0.0, 0.54, 1.61, 1.76, 2.29, 2.14, 1.76, 1.76, 1.76, 2.29, 2.29, 2.32, 2.16, 2.36, 2.82, 2.82, 3.76, 4.12, 5.69, 6.28, 6.01, 6.32, 6.32, 5.69, 5.69, 4.83, 4.95, 5.3, 5.76, 5.64, 5.63, 7.36, 9.92, 12.19, 12.96, 12.85, 12.0, 10.27, 7.92, 5.65, 2.93, 1.54, 1.54, 1.63, 1.48, 0.74, 0.76, 1.54, 5.64, 5.9, 5.41, 5.41, 5.41, -5.08, -5.08, -4.44, -4.44, -4.44, -4.44, -4.0, -4.0, -4.0, -3.35, -3.56, -2.89, -2.23, -1.73, -1.73, -1.09, -1.16, -1.16, -0.55, 0.0, 0.0, 0.0, 0.0, 0.0, 0.0, 0.0, 0.0, 0.59, 0.56, 0.56, 0.56, 0.56, 0.57, 0.57, 0.57, 0.0, 0.0, 0.0, 0.0, 0.0, 0.0, 0.0, 0.0, 0.0, 0.0, 0.0, 0.57, 1.14, 1.73, 1.76, 1.65, 1.65, 1.76, 1.76, 1.76, 2.29, 2.29, 2.32, 2.36, 2.36, 2.82, 3.76, 4.12, 4.43, 6.01, 5.31, 5.31, 4.95, 5.24, 5.24, 6.01, 5.37, 6.01, 5.76, 5.64, 5.14, 5.72, 7.69, 10.43, 12.87, 14.45, 14.43, 12.72, 11.17, 8.8, 5.81, 2.97, 1.67, 0.78, 0.78, 1.14, 4.6, 5.64, 5.9, 4.92, 4.13, 4.13, 4.13, -5.34, -5.34, -4.69, -4.44, -4.44, -4.44, -4.0, -4.0, -4.0, -3.35, -3.35, -2.89, -2.23, -1.73, -1.61, -1.16, -1.16, -1.16, -0.58, -0.55, 0.0, 0.0, 0.0, 0.0, 0.0, 0.0, 0.0, 0.0, 0.59, 0.59, 0.56, 0.56, 0.56, 0.61, 0.0, 0.0, 0.0, 0.0, 0.0, 0.0, 0.0, 0.0, 0.0, 0.0, 0.0, 0.57, 0.57, 1.14, 1.14, 1.73, 1.76, 1.76, 1.76, 1.76, 1.76, 1.76, 2.29, 2.29, 2.32, 2.36, 2.82, 3.49, 4.12, 4.43, 4.74, 5.31, 5.03, 4.58, 5.37, 4.95, 5.69, 6.39, 5.89, 5.21, 5.06, 4.92, 5.63, 7.12, 8.95, 10.65, 12.56, 13.78, 13.14, 12.62, 11.29, 7.8, 3.69, 2.26, 1.73, 3.8, 5.98, 6.42, 5.52, 5.14, 4.13, 3.25, 3.25, 3.25, -5.09, -5.09, -4.69, -4.69, -4.69, -4.44, -4.0, -4.0, -4.0, -3.35, -2.86, -2.23, -1.71, -1.73, -1.71, -1.71, -1.71, -1.16, -1.09, -0.55, 0.0, 0.0, 0.0, 0.0, 0.0, 0.0, 0.0, 0.0, 0.0, 0.59, 0.59, 0.59, 0.56, 0.56, 0.0, 0.0, 0.0, 0.0, 0.0, 0.0, 0.0, 0.0, 0.58, 0.58, 0.58, 0.57, 0.57, 0.61, 1.14, 1.71, 1.73, 1.76, 1.76, 1.76, 1.76, 1.73, 1.73, 2.29, 2.32, 2.36, 2.82, 3.08, 3.49, 4.43, 5.01, 6.01, 5.69, 5.93, 6.28, 6.11, 6.11, 6.01, 5.89, 5.49, 5.38, 5.64, 6.31, 6.97, 8.76, 9.06, 10.34, 11.4, 12.21, 13.39, 12.31, 8.01, 4.6, 2.98, 4.74, 7.27, 6.57, 5.76, 4.92, 3.95, 3.95, 3.95, 3.95, 3.95, -5.09, -5.09, -4.69, -4.69, -4.69, -4.69, -4.0, -4.0, -4.0, -3.35, -2.89, -2.23, -2.23, -1.71, -1.71, -1.71, -1.71, -1.16, -1.09, -0.55, -0.55, 0.0, 0.0, 0.0, 0.0, 0.0, 0.0, 0.0, 0.0, 0.0, 0.0, 0.0, 0.0, 0.0, 0.0, 0.0, 0.0, 0.0, 0.0, 0.0, 0.0, 0.58, 0.58, 0.58, 0.54, 0.57, 0.57, 0.57, 1.14, 1.14, 1.71, 1.73, 1.76, 1.76, 1.1, 1.18, 1.73, 1.73, 1.76, 2.32, 2.36, 3.08, 3.22, 4.11, 4.71, 6.63, 6.63, 6.28, 6.63, 5.77, 5.69, 5.59, 5.89, 5.76, 6.53, 6.53, 6.88, 7.9, 8.12, 8.76, 8.66, 9.54, 12.07, 13.49, 13.22, 8.8, 4.4, 5.43, 8.94, 7.85, 6.45, 4.8, 4.07, 4.07, 4.6, 5.41, 5.41, 5.41, -4.69, -4.69, -4.69, -4.69, -4.69, -4.69, -4.24, -4.0, -4.0, -3.56, -2.89, -2.23, -2.23, -2.23, -2.23, -1.71, -1.71, -1.71, -1.09, -1.09, -0.55, -0.55, 0.0, 0.0, 0.0, 0.0, 0.0, 0.0, 0.0, 0.0, 0.0, 0.0, 0.0, 0.0, 0.0, 0.0, 0.0, 0.0, 0.0, 0.0, 0.58, 0.58, 0.58, 0.57, 0.57, 0.57, 0.57, 1.14, 1.14, 1.14, 1.69, 1.71, 1.73, 1.76, 1.1, 1.18, 1.18, 1.18, 1.63, 1.65, 2.36, 2.4, 3.12, 3.49, 4.07, 5.15, 5.82, 5.77, 6.11, 6.11, 6.01, 6.11, 6.01, 6.64, 7.35, 7.27, 7.27, 7.59, 8.22, 8.12, 7.51, 8.05, 10.71, 12.88, 12.3, 8.4, 7.6, 9.45, 9.21, 7.73, 6.29, 4.8, 4.92, 4.92, 5.41, 6.2, 6.2, 6.2, -4.69, -4.69, -4.69, -4.69, -4.45, -4.03, -4.03, -3.8, -3.56, -3.37, -2.73, -2.23, -2.23, -2.23, -2.23, -1.71, -1.71, -1.71, -1.16, -1.09, -0.55, -0.55, -0.55, 0.0, 0.0, 0.0, 0.0, 0.0, 0.0, 0.0, 0.0, 0.0, 0.0, 0.0, 0.0, 0.0, 0.0, 0.0, 0.0, 0.0, 0.58, 0.54, 0.57, 0.57, 0.57, 1.14, 1.14, 1.14, 1.14, 1.14, 1.69, 1.81, 1.71, 1.1, 1.1, 1.18, 1.18, 1.09, 1.73, 1.76, 1.67, 2.18, 2.86, 2.86, 3.48, 4.43, 5.15, 5.77, 6.44, 6.79, 7.15, 6.73, 6.11, 6.73, 7.41, 7.35, 7.64, 7.27, 7.18, 6.57, 6.57, 6.97, 7.79, 8.83, 8.45, 6.95, 8.55, 8.55, 7.9, 7.73, 7.54, 6.53, 6.36, 6.45, 6.2, 6.2, 6.2, 6.2, -4.69, -4.69, -4.69, -4.24, -4.03, -4.03, -4.03, -3.56, -3.37, -2.89, -2.73, -2.23, -2.23, -2.23, -2.23, -1.71, -1.71, -1.71, -1.16, -1.09, -0.55, -0.55, -0.55, -0.55, 0.0, 0.0, 0.0, 0.0, 0.0, 0.0, 0.0, 0.0, 0.0, 0.0, 0.0, 0.0, 0.0, 0.0, 0.0, 0.0, 0.0, 0.54, 0.57, 0.57, 0.57, 1.14, 1.14, 1.14, 1.14, 1.14, 1.14, 1.69, 1.81, 1.73, 1.1, 1.18, 1.18, 1.18, 1.73, 1.76, 1.8, 2.18, 2.2, 2.86, 2.86, 3.78, 4.54, 5.15, 6.44, 6.82, 6.79, 6.73, 7.15, 7.2, 7.44, 7.41, 7.27, 6.83, 5.9, 5.52, 6.31, 6.2, 5.72, 4.85, 5.32, 6.51, 7.61, 6.64, 6.14, 7.15, 8.29, 8.66, 7.79, 7.12, 6.33, 5.86, 5.86, 5.86, -4.69, -4.69, -4.69, -4.03, -4.03, -3.56, -3.56, -3.37, -2.89, -2.89, -2.23, -2.23, -2.37, -2.37, -2.23, -1.71, -1.71, -1.71, -1.16, -1.16, -0.58, -0.58, -0.55, -0.55, -0.55, -0.55, -0.55, -0.55, -0.58, -0.58, 0.0, 0.0, 0.0, 0.0, 0.0, 0.0, 0.0, 0.0, 0.0, 0.0, 0.0, 0.57, 0.57, 0.57, 0.57, 1.14, 1.14, 1.14, 1.14, 1.07, 1.16, 1.14, 1.69, 1.73, 1.73, 1.73, 1.73, 1.73, 1.73, 1.76, 1.8, 2.36, 2.4, 2.22, 2.48, 3.16, 3.79, 4.84, 5.82, 5.82, 6.18, 6.44, 6.79, 6.79, 6.79, 6.73, 6.53, 5.64, 5.64, 5.38, 6.05, 6.45, 4.93, 3.24, 4.56, 5.81, 5.94, 5.3, 5.64, 6.51, 8.01, 8.58, 7.93, 7.49, 7.25, 6.56, 6.56, 6.56, -4.69, -4.69, -4.45, -4.03, -4.03, -3.56, -3.37, -2.89, -2.89, -2.37, -2.37, -2.37, -2.37, -2.37, -1.81, -1.71, -1.71, -1.16, -1.16, -1.16, -1.16, -0.58, -0.58, -0.58, -0.58, -0.58, -0.58, -0.58, -0.58, -0.58, -0.58, -0.58, 0.0, 0.0, 0.0, 0.0, 0.0, 0.0, 0.0, 0.0, 0.0, 0.57, 0.57, 0.57, 0.57, 0.57, 1.14, 1.14, 1.14, 1.07, 1.16, 1.16, 1.69, 1.71, 1.73, 1.73, 1.73, 1.73, 1.73, 1.76, 1.8, 2.36, 2.4, 2.44, 2.48, 2.48, 3.16, 3.78, 4.54, 4.43, 4.81, 5.15, 5.77, 6.11, 5.69, 6.73, 5.76, 6.53, 5.64, 6.04, 6.42, 6.7, 4.67, 5.75, 6.55, 4.94, 3.9, 5.06, 6.68, 7.22, 7.28, 8.1, 8.18, 7.36, 7.13, 6.9, 6.9, 6.9, -4.45, -4.45, -4.45, -4.03, -3.81, -3.37, -3.37, -2.89, -2.89, -2.89, -2.37, -2.37, -2.37, -2.37, -1.81, -1.71, -1.71, -1.16, -1.16, -1.16, -1.16, -1.16, -1.16, -1.16, -1.16, -1.16, -1.16, -1.16, -0.58, -0.58, -0.58, -0.58, -0.58, 0.0, 0.0, 0.0, 0.0, 0.0, 0.0, 0.0, 0.0, 0.0, 0.57, 0.57, 0.57, 0.57, 0.57, 0.57, 1.14, 1.14, 0.58, 0.58, 1.14, 1.81, 1.61, 1.18, 1.18, 1.18, 1.1, 1.76, 1.8, 2.36, 2.18, 2.4, 2.44, 2.48, 2.51, 3.16, 4.19, 4.54, 4.54, 4.11, 4.29, 5.06, 4.95, 4.95, 5.89, 6.64, 6.53, 6.83, 6.42, 6.45, 7.27, 8.88, 10.17, 6.47, 5.06, 5.77, 7.31, 7.44, 7.19, 7.03, 7.23, 7.01, 7.36, 6.79, 6.79, 6.79, -4.45, -4.45, -4.03, -4.05, -3.81, -3.37, -3.37, -2.89, -2.89, -2.89, -2.37, -2.37, -2.37, -2.37, -1.81, -1.71, -1.71, -1.71, -1.16, -1.16, -1.16, -1.16, -1.16, -1.16, -1.16, -1.16, -1.16, -1.16, -0.58, -0.58, -0.58, -0.58, 0.0, 0.0, 0.0, 0.0, 0.0, 0.0, 0.0, 0.0, 0.0, 0.0, 0.0, 0.57, 0.54, 0.57, 0.57, 0.57, 0.57, 1.14, 0.54, 0.58, 1.14, 1.14, 1.14, 1.16, 1.18, 1.18, 1.18, 1.2, 1.8, 2.36, 2.36, 2.4, 2.4, 2.22, 2.23, 2.84, 3.43, 4.19, 4.54, 4.11, 4.43, 5.06, 5.24, 5.24, 4.95, 5.59, 6.24, 6.53, 6.42, 7.25, 7.2, 9.07, 11.11, 8.68, 7.09, 7.31, 7.9, 7.02, 7.19, 7.34, 8.01, 8.06, 7.23, 7.01, 7.01, 7.01, -4.03, -4.03, -4.05, -4.05, -4.05, -3.6, -3.6, -3.37, -2.89, -2.89, -2.89, -2.37, -2.37, -2.37, -1.81, -1.81, -1.71, -1.71, -1.71, -1.81, -1.81, -1.69, -1.69, -1.81, -1.16, -1.16, -1.16, -1.16, -0.58, -0.58, -0.55, -0.55, 0.0, -0.58, -0.58, -0.58, 0.0, 0.0, 0.0, 0.0, 0.0, 0.0, 0.0, 0.0, 0.0, 0.57, 0.57, 0.57, 0.57, 0.57, 0.57, 1.16, 1.14, 1.14, 1.14, 1.14, 1.16, 1.16, 1.09, 1.1, 1.65, 2.16, 2.36, 2.82, 2.82, 3.12, 2.48, 2.84, 3.16, 4.19, 4.54, 4.11, 4.81, 5.06, 5.69, 5.69, 5.37, 4.95, 5.59, 5.76, 5.52, 5.72, 6.09, 7.11, 9.11, 9.87, 9.42, 9.17, 8.79, 7.93, 7.93, 8.1, 7.93, 7.93, 7.23, 7.23, 7.23, 7.23, -4.03, -4.03, -3.81, -4.05, -4.05, -3.6, -3.6, -3.4, -2.92, -2.89, -2.89, -2.37, -2.37, -2.37, -2.37, -2.37, -2.37, -2.37, -2.21, -2.21, -2.21, -1.69, -1.69, -1.69, -1.07, -1.16, -1.16, -1.16, -0.55, -0.55, -0.55, -0.55, -0.58, -0.58, -0.58, 0.0, 0.0, 0.0, 0.0, 0.0, 0.0, 0.0, 0.0, 0.0, 0.0, 0.57, 0.57, 0.57, 0.57, 0.57, 0.57, 1.14, 1.14, 0.61, 0.56, 1.2, 1.14, 1.14, 1.69, 1.73, 1.76, 2.14, 2.32, 2.32, 2.82, 3.08, 2.86, 3.16, 2.84, 4.19, 4.54, 4.81, 4.81, 5.15, 5.77, 5.69, 5.24, 4.42, 4.83, 4.0, 4.07, 3.85, 4.55, 5.46, 7.27, 9.8, 10.21, 9.37, 9.37, 9.3, 8.85, 8.51, 7.93, 7.93, 7.23, 7.23, 7.23, 7.23, -3.81, -3.81, -3.37, -3.37, -3.6, -3.6, -3.6, -3.4, -3.4, -2.89, -2.89, -2.89, -2.89, -2.89, -2.37, -2.37, -2.21, -2.21, -2.21, -2.21, -2.21, -1.69, -1.69, -1.69, -1.16, -1.16, -1.16, -0.58, -0.55, -0.55, -0.55, -0.58, -0.58, -0.58, -0.58, 0.0, 0.0, 0.0, 0.0, 0.0, 0.0, 0.0, 0.0, 0.0, 0.0, 0.0, 0.57, 0.57, 0.57, 0.0, 0.54, 0.57, 0.61, 0.56, 0.56, 1.12, 1.12, 1.67, 1.78, 1.71, 1.73, 2.29, 2.29, 2.32, 2.8, 2.82, 2.84, 3.15, 3.16, 3.43, 3.73, 4.43, 4.43, 4.74, 4.16, 4.83, 5.1, 4.26, 3.91, 4.0, 3.88, 3.95, 4.06, 5.67, 7.17, 9.51, 9.67, 9.3, 10.07, 10.01, 9.95, 9.16, 8.68, 7.93, 7.45, 7.11, 7.11, 7.11, -3.81, -3.81, -3.37, -3.37, -3.37, -3.37, -3.37, -3.37, -3.37, -3.37, -2.89, -2.89, -2.89, -2.89, -2.86, -2.86, -2.86, -2.86, -2.21, -2.21, -2.21, -1.69, -1.69, -1.81, -1.16, -1.16, -0.58, -0.58, -0.58, -0.55, -0.58, -0.58, -0.58, -0.58, 0.0, 0.0, 0.0, 0.0, 0.0, 0.0, 0.0, 0.0, 0.0, 0.0, 0.0, 0.0, 0.0, 0.57, 0.57, 0.57, 0.54, 0.57, 0.56, 0.56, 1.12, 1.12, 1.67, 1.67, 1.78, 1.69, 1.71, 1.73, 1.76, 2.32, 2.32, 2.32, 2.82, 2.84, 3.48, 3.48, 3.48, 4.43, 4.43, 3.91, 4.16, 4.03, 3.91, 4.12, 4.12, 4.96, 3.88, 4.6, 4.87, 6.28, 8.71, 10.46, 10.73, 10.25, 10.07, 10.3, 10.23, 10.15, 9.34, 8.59, 7.84, 7.08, 7.08, 7.08, -4.05, -4.05, -3.37, -3.37, -3.37, -2.89, -2.89, -3.37, -3.37, -3.37, -2.89, -2.89, -2.89, -2.86, -2.86, -2.86, -2.86, -2.21, -2.21, -2.21, -2.21, -1.69, -1.69, -1.14, -1.07, -1.07, -0.58, -0.58, -0.58, -0.58, -0.58, -0.58, -0.58, -0.58, 0.0, 0.0, 0.0, 0.0, 0.0, 0.0, 0.0, 0.0, 0.0, 0.0, 0.0, 0.0, 0.0, 0.0, 0.0, 0.57, 0.57, 0.57, 0.56, 1.12, 1.12, 1.12, 1.67, 1.67, 1.67, 1.78, 1.69, 1.71, 1.73, 1.65, 2.32, 2.32, 3.04, 3.22, 3.49, 3.49, 3.49, 3.49, 3.49, 4.14, 4.16, 4.26, 5.1, 4.96, 4.96, 4.96, 5.76, 5.52, 5.86, 7.13, 8.74, 11.16, 11.91, 11.19, 10.98, 11.29, 11.19, 10.32, 10.08, 9.26, 8.06, 7.32, 7.32, 7.32, -4.05, -4.05, -3.37, -3.37, -3.37, -2.89, -2.89, -3.37, -3.37, -3.37, -2.89, -2.89, -2.89, -2.86, -2.86, -2.86, -2.86, -2.21, -2.21, -2.21, -2.21, -1.69, -1.69, -1.14, -1.07, -1.07, -0.58, -0.58, -0.58, -0.58, -0.58, -0.58, -0.58, -0.58, 0.0, 0.0, 0.0, 0.0, 0.0, 0.0, 0.0, 0.0, 0.0, 0.0, 0.0, 0.0, 0.0, 0.0, 0.0, 0.57, 0.57, 0.57, 0.56, 1.12, 1.12, 1.12, 1.67, 1.67, 1.67, 1.78, 1.69, 1.71, 1.73, 1.65, 2.32, 2.32, 3.04, 3.22, 3.49, 3.49, 3.49, 3.49, 3.49, 4.14, 4.16, 4.26, 4.71, 4.96, 4.96, 4.96, 5.76, 5.9, 6.2, 7.01, 8.74, 10.35, 11.91, 12.13, 11.92, 11.59, 11.19, 11.08, 10.47, 9.92, 8.62, 7.93, 7.93, 7.93]}]